2016 Cux-Wetter.de -Die Nutzung der Wetterdaten nur mit ausdrcklicher Genehmigung
Wetterdaten: Montag, 04.03.2019
Datum Zeit Temp. A. Feuchte A. Luftdruck Regen Wind Richtung Richtung Sonnenschein Solar Taupunkt Windchill Windben
04.03.2019 00:00 10,0 C 96 % 991,1 hPa 0,0 l/m 23,0 km/h (4 Bft) SW 234 0 min 0 W/m 9,4 C 2,4 C 35,4 km/h (5 Bft)
04.03.2019 00:03 10,0 C 96 % 991,1 hPa 0,0 l/m 20,2 km/h (4 Bft) SW 230 0 min 0 W/m 9,4 C 3,2 C 32,2 km/h (5 Bft)
04.03.2019 00:06 10,0 C 96 % 990,9 hPa 0,0 l/m 18,8 km/h (3 Bft) W-SW 241 0 min 0 W/m 9,4 C 3,7 C 32,2 km/h (5 Bft)
04.03.2019 00:09 10,0 C 96 % 990,9 hPa 0,0 l/m 21,7 km/h (4 Bft) SW 236 0 min 0 W/m 9,4 C 2,8 C 33,8 km/h (5 Bft)
04.03.2019 00:12 10,1 C 96 % 990,9 hPa 0,0 l/m 22,3 km/h (4 Bft) S 189 0 min 0 W/m 9,5 C 2,7 C 35,4 km/h (5 Bft)
04.03.2019 00:15 10,1 C 96 % 991,0 hPa 0,0 l/m 22,3 km/h (4 Bft) S-SW 209 0 min 0 W/m 9,5 C 2,7 C 40,2 km/h (6 Bft)
04.03.2019 00:18 10,1 C 96 % 991,0 hPa 0,0 l/m 21,6 km/h (4 Bft) S-SW 199 0 min 0 W/m 9,5 C 2,9 C 33,8 km/h (5 Bft)
04.03.2019 00:21 10,1 C 96 % 990,8 hPa 0,0 l/m 26,2 km/h (4 Bft) S-SW 211 0 min 0 W/m 9,5 C 1,7 C 40,2 km/h (6 Bft)
04.03.2019 00:24 10,2 C 96 % 990,8 hPa 0,0 l/m 26,7 km/h (4 Bft) S-SW 211 0 min 0 W/m 9,6 C 1,7 C 49,9 km/h (7 Bft)
04.03.2019 00:27 10,2 C 96 % 990,8 hPa 0,0 l/m 24,6 km/h (4 Bft) S-SW 192 0 min 0 W/m 9,6 C 2,2 C 40,2 km/h (6 Bft)
04.03.2019 00:30 10,2 C 96 % 990,7 hPa 0,0 l/m 24,6 km/h (4 Bft) S 171 0 min 0 W/m 9,6 C 2,2 C 37,0 km/h (5 Bft)
04.03.2019 00:33 10,2 C 96 % 990,6 hPa 0,0 l/m 24,7 km/h (4 Bft) SW 221 0 min 0 W/m 9,6 C 2,2 C 40,2 km/h (6 Bft)
04.03.2019 00:36 10,2 C 96 % 990,6 hPa 0,0 l/m 23,4 km/h (4 Bft) S-SW 210 0 min 0 W/m 9,6 C 2,5 C 38,6 km/h (6 Bft)
04.03.2019 00:39 10,2 C 96 % 990,5 hPa 0,0 l/m 20,7 km/h (4 Bft) S-SW 195 0 min 0 W/m 9,6 C 3,3 C 38,6 km/h (6 Bft)
04.03.2019 00:42 10,2 C 96 % 990,6 hPa 0,0 l/m 24,3 km/h (4 Bft) SW 224 0 min 0 W/m 9,6 C 2,3 C 41,8 km/h (6 Bft)
04.03.2019 00:45 10,2 C 96 % 990,5 hPa 0,0 l/m 22,6 km/h (4 Bft) SW 219 0 min 0 W/m 9,6 C 2,8 C 35,4 km/h (5 Bft)
04.03.2019 00:48 10,2 C 95 % 990,5 hPa 0,0 l/m 20,1 km/h (4 Bft) W-SW 242 0 min 0 W/m 9,4 C 3,5 C 32,2 km/h (5 Bft)
04.03.2019 00:51 10,2 C 95 % 990,5 hPa 0,0 l/m 22,8 km/h (4 Bft) SW 215 0 min 0 W/m 9,4 C 2,7 C 33,8 km/h (5 Bft)
04.03.2019 00:54 10,2 C 95 % 990,4 hPa 0,0 l/m 23,3 km/h (4 Bft) SW 231 0 min 0 W/m 9,4 C 2,6 C 37,0 km/h (5 Bft)
04.03.2019 00:57 10,2 C 95 % 990,3 hPa 0,0 l/m 21,4 km/h (4 Bft) S-SW 209 0 min 0 W/m 9,4 C 3,1 C 32,2 km/h (5 Bft)
04.03.2019 01:00 10,2 C 95 % 990,3 hPa 0,0 l/m 22,5 km/h (4 Bft) S-SW 197 0 min 0 W/m 9,4 C 2,8 C 37,0 km/h (5 Bft)
04.03.2019 01:03 10,2 C 95 % 990,3 hPa 0,0 l/m 24,3 km/h (4 Bft) SW 217 0 min 0 W/m 9,4 C 2,3 C 41,8 km/h (6 Bft)
04.03.2019 01:06 10,2 C 95 % 990,2 hPa 0,0 l/m 20,6 km/h (4 Bft) S 175 0 min 0 W/m 9,4 C 3,4 C 27,4 km/h (5 Bft)
04.03.2019 01:09 10,3 C 95 % 990,2 hPa 0,0 l/m 17,9 km/h (3 Bft) SW 221 0 min 0 W/m 9,5 C 4,4 C 25,7 km/h (4 Bft)
04.03.2019 01:12 10,3 C 95 % 990,1 hPa 0,0 l/m 20,6 km/h (4 Bft) S-SW 204 0 min 0 W/m 9,5 C 3,5 C 32,2 km/h (5 Bft)
04.03.2019 01:15 10,3 C 95 % 990,1 hPa 0,0 l/m 22,3 km/h (4 Bft) S-SW 200 0 min 0 W/m 9,5 C 3,0 C 37,0 km/h (5 Bft)
04.03.2019 01:18 10,3 C 95 % 990,2 hPa 0,0 l/m 17,1 km/h (3 Bft) S-SW 211 0 min 0 W/m 9,5 C 4,7 C 37,0 km/h (5 Bft)
04.03.2019 01:21 10,3 C 94 % 990,1 hPa 0,0 l/m 19,9 km/h (4 Bft) S-SW 212 0 min 0 W/m 9,4 C 3,7 C 29,0 km/h (5 Bft)
04.03.2019 01:24 10,3 C 94 % 990,0 hPa 0,0 l/m 18,0 km/h (3 Bft) S-SW 208 0 min 0 W/m 9,4 C 4,3 C 30,6 km/h (5 Bft)
04.03.2019 01:27 10,3 C 94 % 990,0 hPa 0,0 l/m 17,3 km/h (3 Bft) SW 214 0 min 0 W/m 9,4 C 4,6 C 27,4 km/h (5 Bft)
04.03.2019 01:30 10,3 C 94 % 989,9 hPa 0,0 l/m 17,1 km/h (3 Bft) SW 227 0 min 0 W/m 9,4 C 4,7 C 25,7 km/h (4 Bft)
04.03.2019 01:33 10,3 C 94 % 989,9 hPa 0,0 l/m 16,4 km/h (3 Bft) S 190 0 min 0 W/m 9,4 C 4,9 C 27,4 km/h (5 Bft)
04.03.2019 01:36 10,2 C 94 % 989,8 hPa 0,0 l/m 20,4 km/h (4 Bft) S-SW 192 0 min 0 W/m 9,3 C 3,4 C 30,6 km/h (5 Bft)
04.03.2019 01:39 10,2 C 94 % 989,9 hPa 0,0 l/m 19,8 km/h (3 Bft) SW 223 0 min 0 W/m 9,3 C 3,6 C 30,6 km/h (5 Bft)
04.03.2019 01:42 10,2 C 94 % 989,8 hPa 0,0 l/m 18,9 km/h (3 Bft) W-SW 242 0 min 0 W/m 9,3 C 3,9 C 30,6 km/h (5 Bft)
04.03.2019 01:45 10,2 C 94 % 989,7 hPa 0,0 l/m 18,1 km/h (3 Bft) S-SW 205 0 min 0 W/m 9,3 C 4,2 C 35,4 km/h (5 Bft)
04.03.2019 01:48 10,2 C 93 % 989,8 hPa 0,0 l/m 20,4 km/h (4 Bft) S 179 0 min 0 W/m 9,1 C 3,4 C 32,2 km/h (5 Bft)
04.03.2019 01:51 10,3 C 93 % 989,7 hPa 0,0 l/m 19,3 km/h (3 Bft) SW 215 0 min 0 W/m 9,2 C 3,9 C 32,2 km/h (5 Bft)
04.03.2019 01:54 10,3 C 93 % 989,6 hPa 0,0 l/m 18,0 km/h (3 Bft) SW 223 0 min 0 W/m 9,2 C 4,3 C 30,6 km/h (5 Bft)
04.03.2019 01:57 10,3 C 93 % 989,4 hPa 0,0 l/m 16,3 km/h (3 Bft) S 181 0 min 0 W/m 9,2 C 5,0 C 29,0 km/h (5 Bft)
04.03.2019 02:00 10,2 C 93 % 989,4 hPa 0,0 l/m 19,5 km/h (3 Bft) SW 225 0 min 0 W/m 9,1 C 3,7 C 30,6 km/h (5 Bft)
04.03.2019 02:03 10,2 C 93 % 989,5 hPa 0,0 l/m 18,4 km/h (3 Bft) S 183 0 min 0 W/m 9,1 C 4,1 C 32,2 km/h (5 Bft)
04.03.2019 02:06 10,2 C 93 % 989,4 hPa 0,0 l/m 18,6 km/h (3 Bft) S-SO 168 0 min 0 W/m 9,1 C 4,0 C 35,4 km/h (5 Bft)
04.03.2019 02:09 10,2 C 93 % 989,2 hPa 0,0 l/m 20,2 km/h (4 Bft) S 183 0 min 0 W/m 9,1 C 3,5 C 30,6 km/h (5 Bft)
04.03.2019 02:12 10,2 C 92 % 989,0 hPa 0,0 l/m 17,4 km/h (3 Bft) S 190 0 min 0 W/m 9,0 C 4,4 C 25,7 km/h (4 Bft)
04.03.2019 02:15 10,2 C 92 % 989,1 hPa 0,0 l/m 20,5 km/h (4 Bft) SW 225 0 min 0 W/m 9,0 C 3,4 C 37,0 km/h (5 Bft)
04.03.2019 02:18 10,2 C 92 % 989,1 hPa 0,0 l/m 19,7 km/h (3 Bft) S-SW 211 0 min 0 W/m 9,0 C 3,6 C 33,8 km/h (5 Bft)
04.03.2019 02:21 10,2 C 92 % 989,0 hPa 0,0 l/m 17,8 km/h (3 Bft) SW 218 0 min 0 W/m 9,0 C 4,3 C 29,0 km/h (5 Bft)
04.03.2019 02:24 10,3 C 92 % 989,0 hPa 0,0 l/m 19,2 km/h (3 Bft) S 191 0 min 0 W/m 9,1 C 3,9 C 29,0 km/h (5 Bft)
04.03.2019 02:27 10,3 C 92 % 988,9 hPa 0,0 l/m 16,4 km/h (3 Bft) SW 217 0 min 0 W/m 9,1 C 4,9 C 30,6 km/h (5 Bft)
04.03.2019 02:30 10,3 C 92 % 988,8 hPa 0,0 l/m 16,5 km/h (3 Bft) S-SW 202 0 min 0 W/m 9,1 C 4,9 C 24,1 km/h (4 Bft)
04.03.2019 02:33 10,3 C 92 % 988,7 hPa 0,0 l/m 19,3 km/h (3 Bft) SW 217 0 min 0 W/m 9,1 C 3,9 C 30,6 km/h (5 Bft)
04.03.2019 02:36 10,4 C 92 % 988,6 hPa 0,0 l/m 20,4 km/h (4 Bft) S 186 0 min 0 W/m 9,2 C 3,7 C 35,4 km/h (5 Bft)
04.03.2019 02:39 10,4 C 92 % 988,5 hPa 0,0 l/m 21,0 km/h (4 Bft) S-SO 157 0 min 0 W/m 9,2 C 3,5 C 40,2 km/h (6 Bft)
04.03.2019 02:42 10,4 C 92 % 988,6 hPa 0,0 l/m 21,9 km/h (4 Bft) S 170 0 min 0 W/m 9,2 C 3,2 C 38,6 km/h (6 Bft)
04.03.2019 02:45 10,4 C 92 % 988,6 hPa 0,0 l/m 21,6 km/h (4 Bft) S 181 0 min 0 W/m 9,2 C 3,3 C 33,8 km/h (5 Bft)
04.03.2019 02:48 10,4 C 92 % 988,5 hPa 0,0 l/m 19,4 km/h (3 Bft) S 169 0 min 0 W/m 9,2 C 4,0 C 29,0 km/h (5 Bft)
04.03.2019 02:51 10,4 C 92 % 988,4 hPa 0,0 l/m 17,6 km/h (3 Bft) SW 220 0 min 0 W/m 9,2 C 4,6 C 33,8 km/h (5 Bft)
04.03.2019 02:54 10,4 C 92 % 988,4 hPa 0,0 l/m 16,6 km/h (3 Bft) S-SW 192 0 min 0 W/m 9,2 C 5,0 C 27,4 km/h (5 Bft)
04.03.2019 02:57 10,4 C 92 % 988,4 hPa 0,0 l/m 17,9 km/h (3 Bft) S 174 0 min 0 W/m 9,2 C 4,5 C 29,0 km/h (5 Bft)
04.03.2019 03:00 10,4 C 92 % 988,3 hPa 0,0 l/m 13,3 km/h (3 Bft) SW 227 0 min 0 W/m 9,2 C 6,4 C 22,5 km/h (4 Bft)
04.03.2019 03:03 10,4 C 92 % 988,2 hPa 0,0 l/m 18,6 km/h (3 Bft) S 185 0 min 0 W/m 9,2 C 4,3 C 30,6 km/h (5 Bft)
04.03.2019 03:06 10,4 C 92 % 987,9 hPa 0,0 l/m 18,7 km/h (3 Bft) S 182 0 min 0 W/m 9,2 C 4,2 C 27,4 km/h (5 Bft)
04.03.2019 03:09 10,4 C 92 % 987,8 hPa 0,0 l/m 15,8 km/h (3 Bft) S 190 0 min 0 W/m 9,2 C 5,3 C 27,4 km/h (5 Bft)
04.03.2019 03:12 10,3 C 92 % 987,7 hPa 0,0 l/m 15,6 km/h (3 Bft) S-SW 193 0 min 0 W/m 9,1 C 5,3 C 25,7 km/h (4 Bft)
04.03.2019 03:15 10,3 C 92 % 987,7 hPa 0,0 l/m 17,3 km/h (3 Bft) S-SO 161 0 min 0 W/m 9,1 C 4,6 C 30,6 km/h (5 Bft)
04.03.2019 03:18 10,3 C 92 % 987,6 hPa 0,0 l/m 16,1 km/h (3 Bft) S 179 0 min 0 W/m 9,1 C 5,1 C 29,0 km/h (5 Bft)
04.03.2019 03:21 10,3 C 92 % 987,7 hPa 0,0 l/m 16,1 km/h (3 Bft) S-SO 150 0 min 0 W/m 9,1 C 5,1 C 25,7 km/h (4 Bft)
04.03.2019 03:24 10,3 C 92 % 987,6 hPa 0,0 l/m 17,9 km/h (3 Bft) SW 219 0 min 0 W/m 9,1 C 4,4 C 30,6 km/h (5 Bft)
04.03.2019 03:27 10,3 C 92 % 987,7 hPa 0,0 l/m 20,0 km/h (4 Bft) W-SW 248 0 min 0 W/m 9,1 C 3,7 C 32,2 km/h (5 Bft)
04.03.2019 03:30 10,3 C 92 % 987,6 hPa 0,0 l/m 20,0 km/h (4 Bft) S-SW 192 0 min 0 W/m 9,1 C 3,7 C 37,0 km/h (5 Bft)
04.03.2019 03:33 10,4 C 92 % 987,5 hPa 0,0 l/m 17,4 km/h (3 Bft) SW 226 0 min 0 W/m 9,2 C 4,7 C 27,4 km/h (5 Bft)
04.03.2019 03:36 10,4 C 92 % 987,6 hPa 0,0 l/m 17,5 km/h (3 Bft) SW 227 0 min 0 W/m 9,2 C 4,7 C 29,0 km/h (5 Bft)
04.03.2019 03:39 10,5 C 92 % 987,4 hPa 0,0 l/m 17,9 km/h (3 Bft) S 171 0 min 0 W/m 9,3 C 4,6 C 27,4 km/h (5 Bft)
04.03.2019 03:42 10,6 C 92 % 987,2 hPa 0,0 l/m 18,4 km/h (3 Bft) S 189 0 min 0 W/m 9,4 C 4,6 C 29,0 km/h (5 Bft)
04.03.2019 03:45 10,6 C 92 % 987,2 hPa 0,0 l/m 17,3 km/h (3 Bft) W-SW 238 0 min 0 W/m 9,4 C 5,0 C 35,4 km/h (5 Bft)
04.03.2019 03:48 10,6 C 91 % 987,1 hPa 0,0 l/m 18,3 km/h (3 Bft) S-SW 207 0 min 0 W/m 9,2 C 4,6 C 32,2 km/h (5 Bft)
04.03.2019 03:51 10,7 C 91 % 987,0 hPa 0,0 l/m 18,2 km/h (3 Bft) S 176 0 min 0 W/m 9,3 C 4,8 C 29,0 km/h (5 Bft)
04.03.2019 03:54 10,7 C 91 % 986,8 hPa 0,0 l/m 16,8 km/h (3 Bft) S 180 0 min 0 W/m 9,3 C 5,3 C 25,7 km/h (4 Bft)
04.03.2019 03:57 10,7 C 91 % 986,8 hPa 0,0 l/m 21,0 km/h (4 Bft) S-SW 192 0 min 0 W/m 9,3 C 3,9 C 32,2 km/h (5 Bft)
04.03.2019 04:00 10,7 C 91 % 986,7 hPa 0,0 l/m 15,6 km/h (3 Bft) S-SW 200 0 min 0 W/m 9,3 C 5,7 C 30,6 km/h (5 Bft)
04.03.2019 04:03 10,7 C 91 % 986,6 hPa 0,0 l/m 16,6 km/h (3 Bft) S 170 0 min 0 W/m 9,3 C 5,4 C 29,0 km/h (5 Bft)
04.03.2019 04:06 10,7 C 91 % 986,5 hPa 0,0 l/m 21,5 km/h (4 Bft) S 173 0 min 0 W/m 9,3 C 3,7 C 35,4 km/h (5 Bft)
04.03.2019 04:09 10,8 C 91 % 986,5 hPa 0,0 l/m 19,3 km/h (3 Bft) S 190 0 min 0 W/m 9,4 C 4,5 C 32,2 km/h (5 Bft)
04.03.2019 04:12 10,8 C 90 % 986,3 hPa 0,0 l/m 15,9 km/h (3 Bft) S-SW 196 0 min 0 W/m 9,2 C 5,7 C 25,7 km/h (4 Bft)
04.03.2019 04:15 10,8 C 90 % 986,2 hPa 0,0 l/m 16,6 km/h (3 Bft) S-SW 193 0 min 0 W/m 9,2 C 5,5 C 27,4 km/h (5 Bft)
04.03.2019 04:18 10,8 C 90 % 986,1 hPa 0,0 l/m 17,5 km/h (3 Bft) S 182 0 min 0 W/m 9,2 C 5,2 C 29,0 km/h (5 Bft)
04.03.2019 04:21 10,8 C 90 % 986,2 hPa 0,0 l/m 15,8 km/h (3 Bft) S-SW 192 0 min 0 W/m 9,2 C 5,8 C 27,4 km/h (5 Bft)
04.03.2019 04:24 10,8 C 90 % 986,1 hPa 0,0 l/m 18,7 km/h (3 Bft) S 190 0 min 0 W/m 9,2 C 4,7 C 30,6 km/h (5 Bft)
04.03.2019 04:27 10,8 C 90 % 986,1 hPa 0,0 l/m 16,6 km/h (3 Bft) S-SO 168 0 min 0 W/m 9,2 C 5,5 C 27,4 km/h (5 Bft)
04.03.2019 04:30 10,8 C 90 % 986,0 hPa 0,0 l/m 19,0 km/h (3 Bft) S 178 0 min 0 W/m 9,2 C 4,6 C 29,0 km/h (5 Bft)
04.03.2019 04:33 10,8 C 90 % 985,9 hPa 0,0 l/m 18,0 km/h (3 Bft) S 169 0 min 0 W/m 9,2 C 5,0 C 29,0 km/h (5 Bft)
04.03.2019 04:36 10,8 C 90 % 986,0 hPa 0,0 l/m 15,9 km/h (3 Bft) S-SO 167 0 min 0 W/m 9,2 C 5,7 C 25,7 km/h (4 Bft)
04.03.2019 04:39 10,8 C 90 % 985,9 hPa 0,0 l/m 16,3 km/h (3 Bft) S 177 0 min 0 W/m 9,2 C 5,6 C 27,4 km/h (5 Bft)
04.03.2019 04:42 10,8 C 90 % 985,8 hPa 0,0 l/m 18,8 km/h (3 Bft) S-SW 192 0 min 0 W/m 9,2 C 4,7 C 30,6 km/h (5 Bft)
04.03.2019 04:45 10,8 C 90 % 985,7 hPa 0,0 l/m 20,7 km/h (4 Bft) SW 216 0 min 0 W/m 9,2 C 4,1 C 32,2 km/h (5 Bft)
04.03.2019 04:48 10,8 C 90 % 985,7 hPa 0,0 l/m 18,8 km/h (3 Bft) S 183 0 min 0 W/m 9,2 C 4,7 C 32,2 km/h (5 Bft)
04.03.2019 04:51 10,8 C 89 % 985,6 hPa 0,0 l/m 18,4 km/h (3 Bft) S 183 0 min 0 W/m 9,1 C 4,8 C 32,2 km/h (5 Bft)
04.03.2019 04:54 10,8 C 89 % 985,5 hPa 0,0 l/m 19,9 km/h (4 Bft) S-SO 166 0 min 0 W/m 9,1 C 4,4 C 33,8 km/h (5 Bft)
04.03.2019 04:57 10,8 C 89 % 985,4 hPa 0,0 l/m 20,1 km/h (4 Bft) O 96 0 min 0 W/m 9,1 C 4,3 C 32,2 km/h (5 Bft)
04.03.2019 05:00 10,9 C 89 % 985,3 hPa 0,0 l/m 19,7 km/h (3 Bft) S 184 0 min 0 W/m 9,2 C 4,5 C 33,8 km/h (5 Bft)
04.03.2019 05:03 10,9 C 89 % 985,2 hPa 0,0 l/m 17,7 km/h (3 Bft) S 180 0 min 0 W/m 9,2 C 5,2 C 30,6 km/h (5 Bft)
04.03.2019 05:06 10,9 C 89 % 985,2 hPa 0,0 l/m 17,9 km/h (3 Bft) S 186 0 min 0 W/m 9,2 C 5,1 C 29,0 km/h (5 Bft)
04.03.2019 05:09 10,9 C 89 % 985,2 hPa 0,0 l/m 19,1 km/h (3 Bft) S 184 0 min 0 W/m 9,2 C 4,7 C 30,6 km/h (5 Bft)
04.03.2019 05:12 10,9 C 88 % 985,1 hPa 0,0 l/m 16,2 km/h (3 Bft) S 175 0 min 0 W/m 9,0 C 5,8 C 29,0 km/h (5 Bft)
04.03.2019 05:15 10,9 C 88 % 985,1 hPa 0,0 l/m 18,4 km/h (3 Bft) S-SO 149 0 min 0 W/m 9,0 C 5,0 C 27,4 km/h (5 Bft)
04.03.2019 05:18 10,9 C 88 % 984,9 hPa 0,0 l/m 14,9 km/h (3 Bft) S 173 0 min 0 W/m 9,0 C 6,3 C 25,7 km/h (4 Bft)
04.03.2019 05:21 10,9 C 88 % 984,6 hPa 0,0 l/m 16,4 km/h (3 Bft) S 178 0 min 0 W/m 9,0 C 5,7 C 32,2 km/h (5 Bft)
04.03.2019 05:24 10,9 C 88 % 984,6 hPa 0,0 l/m 13,7 km/h (3 Bft) S 174 0 min 0 W/m 9,0 C 6,8 C 25,7 km/h (4 Bft)
04.03.2019 05:27 10,9 C 88 % 984,5 hPa 0,0 l/m 15,9 km/h (3 Bft) S 186 0 min 0 W/m 9,0 C 5,9 C 24,1 km/h (4 Bft)
04.03.2019 05:30 10,9 C 88 % 984,4 hPa 0,0 l/m 16,3 km/h (3 Bft) S 175 0 min 0 W/m 9,0 C 5,7 C 20,9 km/h (4 Bft)
04.03.2019 05:33 10,9 C 88 % 984,4 hPa 0,0 l/m 13,7 km/h (3 Bft) S 182 0 min 0 W/m 9,0 C 6,8 C 22,5 km/h (4 Bft)
04.03.2019 05:36 10,8 C 88 % 984,3 hPa 0,0 l/m 13,5 km/h (3 Bft) S 182 0 min 0 W/m 8,9 C 6,7 C 22,5 km/h (4 Bft)
04.03.2019 05:39 10,9 C 88 % 984,3 hPa 0,0 l/m 13,6 km/h (3 Bft) S-SO 164 0 min 0 W/m 9,0 C 6,8 C 25,7 km/h (4 Bft)
04.03.2019 05:42 10,9 C 88 % 984,2 hPa 0,0 l/m 16,4 km/h (3 Bft) S 176 0 min 0 W/m 9,0 C 5,7 C 25,7 km/h (4 Bft)
04.03.2019 05:45 10,9 C 88 % 983,9 hPa 0,0 l/m 15,4 km/h (3 Bft) S 184 0 min 0 W/m 9,0 C 6,1 C 22,5 km/h (4 Bft)
04.03.2019 05:48 10,9 C 88 % 983,9 hPa 0,0 l/m 13,1 km/h (3 Bft) S 180 0 min 0 W/m 9,0 C 7,0 C 22,5 km/h (4 Bft)
04.03.2019 05:51 10,9 C 88 % 983,7 hPa 0,0 l/m 15,5 km/h (3 Bft) S 186 0 min 0 W/m 9,0 C 6,0 C 32,2 km/h (5 Bft)
04.03.2019 05:54 10,9 C 88 % 983,7 hPa 0,0 l/m 16,8 km/h (3 Bft) S 173 0 min 0 W/m 9,0 C 5,5 C 25,7 km/h (4 Bft)
04.03.2019 05:57 10,9 C 88 % 983,6 hPa 0,0 l/m 18,3 km/h (3 Bft) S-SO 163 0 min 0 W/m 9,0 C 5,0 C 30,6 km/h (5 Bft)
04.03.2019 06:00 10,9 C 88 % 983,5 hPa 0,0 l/m 17,7 km/h (3 Bft) S-SW 198 0 min 0 W/m 9,0 C 5,2 C 30,6 km/h (5 Bft)
04.03.2019 06:03 10,9 C 87 % 983,4 hPa 0,0 l/m 23,8 km/h (4 Bft) S-SO 158 0 min 0 W/m 8,8 C 3,4 C 33,8 km/h (5 Bft)
04.03.2019 06:06 10,9 C 87 % 983,3 hPa 0,0 l/m 16,7 km/h (3 Bft) S 180 0 min 0 W/m 8,8 C 5,6 C 30,6 km/h (5 Bft)
04.03.2019 06:09 10,9 C 87 % 983,2 hPa 0,0 l/m 18,6 km/h (3 Bft) S 184 0 min 0 W/m 8,8 C 4,9 C 27,4 km/h (5 Bft)
04.03.2019 06:12 11,0 C 87 % 983,1 hPa 0,0 l/m 17,7 km/h (3 Bft) W-SW 238 0 min 0 W/m 8,9 C 5,3 C 33,8 km/h (5 Bft)
04.03.2019 06:15 11,0 C 87 % 982,9 hPa 0,0 l/m 17,7 km/h (3 Bft) S 181 0 min 0 W/m 8,9 C 5,3 C 30,6 km/h (5 Bft)
04.03.2019 06:18 10,9 C 87 % 982,9 hPa 0,0 l/m 17,5 km/h (3 Bft) S 178 0 min 0 W/m 8,8 C 5,3 C 29,0 km/h (5 Bft)
04.03.2019 06:21 10,9 C 87 % 982,8 hPa 0,0 l/m 14,9 km/h (3 Bft) S 175 0 min 0 W/m 8,8 C 6,3 C 25,7 km/h (4 Bft)
04.03.2019 06:24 10,9 C 87 % 982,8 hPa 0,0 l/m 17,0 km/h (3 Bft) S 173 0 min 0 W/m 8,8 C 5,5 C 29,0 km/h (5 Bft)
04.03.2019 06:27 10,8 C 87 % 982,7 hPa 0,0 l/m 15,5 km/h (3 Bft) SW 215 0 min 0 W/m 8,7 C 5,9 C 22,5 km/h (4 Bft)
04.03.2019 06:30 10,8 C 87 % 982,6 hPa 0,0 l/m 14,5 km/h (3 Bft) S 184 0 min 0 W/m 8,7 C 6,3 C 22,5 km/h (4 Bft)
04.03.2019 06:33 10,7 C 87 % 982,5 hPa 0,0 l/m 15,0 km/h (3 Bft) S-SO 167 0 min 0 W/m 8,6 C 6,0 C 27,4 km/h (5 Bft)
04.03.2019 06:36 10,7 C 87 % 982,3 hPa 0,0 l/m 14,6 km/h (3 Bft) S 183 0 min 0 W/m 8,6 C 6,1 C 24,1 km/h (4 Bft)
04.03.2019 06:39 10,6 C 87 % 982,3 hPa 0,0 l/m 14,6 km/h (3 Bft) S 180 0 min 0 W/m 8,5 C 6,0 C 22,5 km/h (4 Bft)
04.03.2019 06:42 10,6 C 87 % 982,2 hPa 0,0 l/m 15,2 km/h (3 Bft) S 180 0 min 0 W/m 8,5 C 5,8 C 27,4 km/h (5 Bft)
04.03.2019 06:45 10,6 C 88 % 982,0 hPa 0,0 l/m 17,2 km/h (3 Bft) S 178 0 min 0 W/m 8,7 C 5,0 C 30,6 km/h (5 Bft)
04.03.2019 06:48 10,6 C 88 % 982,0 hPa 0,0 l/m 16,4 km/h (3 Bft) S-SW 192 0 min 0 W/m 8,7 C 5,3 C 29,0 km/h (5 Bft)
04.03.2019 06:51 10,5 C 88 % 981,9 hPa 0,0 l/m 16,1 km/h (3 Bft) S 180 0 min 0 W/m 8,6 C 5,3 C 30,6 km/h (5 Bft)
04.03.2019 06:54 10,5 C 88 % 981,9 hPa 0,0 l/m 16,9 km/h (3 Bft) S 179 0 min 0 W/m 8,6 C 5,0 C 27,4 km/h (5 Bft)
04.03.2019 06:57 10,4 C 88 % 981,8 hPa 0,0 l/m 15,2 km/h (3 Bft) S 170 0 min 0 W/m 8,5 C 5,5 C 24,1 km/h (4 Bft)
04.03.2019 07:00 10,4 C 88 % 981,8 hPa 0,0 l/m 18,2 km/h (3 Bft) S 176 0 min 0 W/m 8,5 C 4,4 C 29,0 km/h (5 Bft)
04.03.2019 07:03 10,4 C 88 % 981,8 hPa 0,0 l/m 16,7 km/h (3 Bft) S 175 0 min 0 W/m 8,5 C 4,9 C 25,7 km/h (4 Bft)
04.03.2019 07:06 10,4 C 88 % 981,7 hPa 0,0 l/m 16,2 km/h (3 Bft) S-SO 162 0 min 0 W/m 8,5 C 5,1 C 29,0 km/h (5 Bft)
04.03.2019 07:09 10,3 C 88 % 981,7 hPa 0,0 l/m 15,1 km/h (3 Bft) S-SO 154 0 min 0 W/m 8,4 C 5,5 C 24,1 km/h (4 Bft)
04.03.2019 07:12 10,3 C 88 % 981,6 hPa 0,0 l/m 17,5 km/h (3 Bft) S 183 0 min 0 W/m 8,4 C 4,5 C 27,4 km/h (5 Bft)
04.03.2019 07:15 10,4 C 87 % 981,5 hPa 0,0 l/m 19,5 km/h (3 Bft) SW 223 0 min 0 W/m 8,3 C 4,0 C 29,0 km/h (5 Bft)
04.03.2019 07:18 10,4 C 87 % 981,5 hPa 0,0 l/m 14,7 km/h (3 Bft) SW 219 0 min 0 W/m 8,3 C 5,7 C 25,7 km/h (4 Bft)
04.03.2019 07:21 10,4 C 87 % 981,4 hPa 0,0 l/m 17,2 km/h (3 Bft) S 174 0 min 0 W/m 8,3 C 4,8 C 30,6 km/h (5 Bft)
04.03.2019 07:24 10,4 C 87 % 981,4 hPa 0,0 l/m 17,4 km/h (3 Bft) S 185 0 min 0 W/m 8,3 C 4,7 C 27,4 km/h (5 Bft)
04.03.2019 07:27 10,4 C 87 % 981,3 hPa 0,0 l/m 16,1 km/h (3 Bft) S 169 0 min 0 W/m 8,3 C 5,2 C 22,5 km/h (4 Bft)
04.03.2019 07:30 10,4 C 87 % 981,2 hPa 0,0 l/m 17,2 km/h (3 Bft) S-SW 200 0 min 0 W/m 8,3 C 4,8 C 25,7 km/h (4 Bft)
04.03.2019 07:33 10,5 C 87 % 981,1 hPa 0,0 l/m 15,0 km/h (3 Bft) S-SW 206 0 min 0 W/m 8,4 C 5,7 C 33,8 km/h (5 Bft)
04.03.2019 07:36 10,6 C 87 % 981,2 hPa 0,0 l/m 17,7 km/h (3 Bft) S-SO 166 0 min 0 W/m 8,5 C 4,8 C 29,0 km/h (5 Bft)
04.03.2019 07:39 10,6 C 86 % 981,0 hPa 0,0 l/m 15,9 km/h (3 Bft) S 182 0 min 0 W/m 8,4 C 5,5 C 25,7 km/h (4 Bft)
04.03.2019 07:42 10,6 C 86 % 981,0 hPa 0,0 l/m 20,4 km/h (4 Bft) S-SW 198 0 min 0 W/m 8,4 C 3,9 C 32,2 km/h (5 Bft)
04.03.2019 07:45 10,6 C 86 % 980,9 hPa 0,0 l/m 17,3 km/h (3 Bft) S-SW 194 0 min 0 W/m 8,4 C 5,0 C 25,7 km/h (4 Bft)
04.03.2019 07:48 10,7 C 86 % 980,9 hPa 0,0 l/m 19,5 km/h (3 Bft) S 169 0 min 0 W/m 8,5 C 4,4 C 33,8 km/h (5 Bft)
04.03.2019 07:51 10,7 C 86 % 980,8 hPa 0,0 l/m 16,0 km/h (3 Bft) S-SO 153 0 min 5 W/m 8,5 C 5,6 C 29,0 km/h (5 Bft)
04.03.2019 07:54 10,7 C 85 % 980,8 hPa 0,0 l/m 20,7 km/h (4 Bft) SW 221 0 min 9 W/m 8,3 C 4,0 C 30,6 km/h (5 Bft)
04.03.2019 07:57 10,7 C 85 % 980,6 hPa 0,0 l/m 17,0 km/h (3 Bft) S 173 0 min 11 W/m 8,3 C 5,2 C 29,0 km/h (5 Bft)
04.03.2019 08:00 10,8 C 85 % 980,5 hPa 0,0 l/m 21,6 km/h (4 Bft) S-SW 192 0 min 19 W/m 8,4 C 3,8 C 32,2 km/h (5 Bft)
04.03.2019 08:03 10,8 C 85 % 980,5 hPa 0,0 l/m 24,5 km/h (4 Bft) S-SW 200 0 min 12 W/m 8,4 C 3,0 C 45,1 km/h (6 Bft)
04.03.2019 08:06 10,9 C 84 % 980,5 hPa 0,0 l/m 17,7 km/h (3 Bft) S-SW 203 0 min 21 W/m 8,3 C 5,2 C 27,4 km/h (5 Bft)
04.03.2019 08:09 10,9 C 84 % 980,5 hPa 0,0 l/m 19,8 km/h (3 Bft) W-SW 237 0 min 28 W/m 8,3 C 4,5 C 33,8 km/h (5 Bft)
04.03.2019 08:12 11,1 C 84 % 980,3 hPa 0,0 l/m 16,8 km/h (3 Bft) W-SW 253 0 min 30 W/m 8,5 C 5,8 C 30,6 km/h (5 Bft)
04.03.2019 08:15 11,1 C 83 % 980,2 hPa 0,0 l/m 15,8 km/h (3 Bft) S 180 0 min 33 W/m 8,3 C 6,2 C 27,4 km/h (5 Bft)
04.03.2019 08:18 11,2 C 83 % 980,0 hPa 0,0 l/m 20,5 km/h (4 Bft) S-SO 165 0 min 51 W/m 8,4 C 4,7 C 35,4 km/h (5 Bft)
04.03.2019 08:21 11,2 C 82 % 980,0 hPa 0,0 l/m 22,2 km/h (4 Bft) S-SW 213 0 min 60 W/m 8,2 C 4,2 C 35,4 km/h (5 Bft)
04.03.2019 08:24 11,3 C 82 % 980,0 hPa 0,0 l/m 17,2 km/h (3 Bft) S 179 0 min 42 W/m 8,3 C 5,9 C 30,6 km/h (5 Bft)
04.03.2019 08:27 11,3 C 82 % 980,0 hPa 0,0 l/m 19,7 km/h (3 Bft) S-SW 196 0 min 37 W/m 8,3 C 5,1 C 29,0 km/h (5 Bft)
04.03.2019 08:30 11,3 C 82 % 979,9 hPa 0,0 l/m 19,4 km/h (3 Bft) S-SW 193 0 min 37 W/m 8,3 C 5,2 C 35,4 km/h (5 Bft)
04.03.2019 08:33 11,3 C 82 % 979,9 hPa 0,0 l/m 18,6 km/h (3 Bft) S-SW 196 0 min 40 W/m 8,3 C 5,4 C 27,4 km/h (5 Bft)
04.03.2019 08:36 11,3 C 82 % 979,8 hPa 0,0 l/m 19,5 km/h (3 Bft) S 178 0 min 44 W/m 8,3 C 5,1 C 37,0 km/h (5 Bft)
04.03.2019 08:39 11,3 C 82 % 979,7 hPa 0,0 l/m 17,6 km/h (3 Bft) S-SW 207 0 min 26 W/m 8,3 C 5,7 C 33,8 km/h (5 Bft)
04.03.2019 08:42 11,3 C 82 % 979,5 hPa 0,0 l/m 16,5 km/h (3 Bft) S 182 0 min 49 W/m 8,3 C 6,1 C 24,1 km/h (4 Bft)
04.03.2019 08:45 11,2 C 83 % 979,6 hPa 0,0 l/m 14,8 km/h (3 Bft) S 180 0 min 56 W/m 8,4 C 6,7 C 25,7 km/h (4 Bft)
04.03.2019 08:48 11,2 C 83 % 979,6 hPa 0,0 l/m 17,7 km/h (3 Bft) S 170 0 min 32 W/m 8,4 C 5,6 C 25,7 km/h (4 Bft)
04.03.2019 08:51 11,1 C 83 % 979,3 hPa 0,0 l/m 16,8 km/h (3 Bft) S 176 0 min 23 W/m 8,3 C 5,8 C 29,0 km/h (5 Bft)
04.03.2019 08:54 11,1 C 83 % 979,5 hPa 0,0 l/m 18,1 km/h (3 Bft) S 176 0 min 19 W/m 8,3 C 5,3 C 37,0 km/h (5 Bft)
04.03.2019 08:57 11,2 C 83 % 981,0 hPa 0,0 l/m 22,8 km/h (4 Bft) W-SW 253 0 min 0 W/m 8,4 C 4,0 C 38,6 km/h (6 Bft)
04.03.2019 09:00 10,4 C 78 % 981,0 hPa 0,8 l/m 31,8 km/h (5 Bft) W-SW 239 0 min 0 W/m 6,7 C 0,9 C 51,5 km/h (7 Bft)
04.03.2019 09:03 9,4 C 80 % 980,7 hPa 0,4 l/m 28,7 km/h (5 Bft) SW 216 0 min 0 W/m 6,1 C 0,1 C 41,8 km/h (6 Bft)
04.03.2019 09:06 8,8 C 83 % 980,3 hPa 0,0 l/m 19,3 km/h (3 Bft) W-SW 238 0 min 11 W/m 6,1 C 2,0 C 29,0 km/h (5 Bft)
04.03.2019 09:09 8,4 C 84 % 980,4 hPa 0,0 l/m 18,9 km/h (3 Bft) S 186 0 min 35 W/m 5,9 C 1,6 C 29,0 km/h (5 Bft)
04.03.2019 09:12 8,2 C 85 % 980,4 hPa 0,0 l/m 20,5 km/h (4 Bft) SW 236 0 min 32 W/m 5,8 C 0,8 C 29,0 km/h (5 Bft)
04.03.2019 09:15 8,1 C 87 % 980,3 hPa 0,0 l/m 17,6 km/h (3 Bft) SW 214 0 min 32 W/m 6,1 C 1,7 C 29,0 km/h (5 Bft)
04.03.2019 09:18 7,9 C 87 % 980,4 hPa 0,0 l/m 18,4 km/h (3 Bft) S-SW 203 0 min 26 W/m 5,9 C 1,2 C 27,4 km/h (5 Bft)
04.03.2019 09:21 7,8 C 88 % 980,4 hPa 0,2 l/m 20,6 km/h (4 Bft) SW 234 0 min 28 W/m 5,9 C 0,2 C 29,0 km/h (5 Bft)
04.03.2019 09:24 7,7 C 89 % 980,4 hPa 0,0 l/m 19,7 km/h (3 Bft) SW 224 0 min 23 W/m 6,0 C 0,4 C 32,2 km/h (5 Bft)
04.03.2019 09:27 7,7 C 89 % 980,4 hPa 0,0 l/m 21,5 km/h (4 Bft) SW 225 0 min 23 W/m 6,0 C -0,2 C 32,2 km/h (5 Bft)
04.03.2019 09:30 7,6 C 90 % 980,4 hPa 0,0 l/m 21,0 km/h (4 Bft) SW 215 0 min 18 W/m 6,1 C -0,2 C 32,2 km/h (5 Bft)
04.03.2019 09:33 7,6 C 90 % 980,3 hPa 0,0 l/m 22,7 km/h (4 Bft) S-SW 213 0 min 18 W/m 6,1 C -0,7 C 33,8 km/h (5 Bft)
04.03.2019 09:36 7,6 C 90 % 980,3 hPa 0,0 l/m 20,9 km/h (4 Bft) S-SW 213 0 min 12 W/m 6,1 C -0,1 C 37,0 km/h (5 Bft)
04.03.2019 09:39 7,7 C 90 % 980,1 hPa 0,0 l/m 17,9 km/h (3 Bft) S-SW 211 0 min 11 W/m 6,2 C 1,1 C 29,0 km/h (5 Bft)
04.03.2019 09:42 7,7 C 90 % 980,4 hPa 0,0 l/m 20,4 km/h (4 Bft) SW 226 0 min 12 W/m 6,2 C 0,2 C 30,6 km/h (5 Bft)
04.03.2019 09:45 7,7 C 90 % 980,4 hPa 0,0 l/m 24,0 km/h (4 Bft) SW 223 0 min 21 W/m 6,2 C -1,0 C 37,0 km/h (5 Bft)
04.03.2019 09:48 7,7 C 90 % 980,2 hPa 0,0 l/m 21,6 km/h (4 Bft) S-SW 207 0 min 25 W/m 6,2 C -0,2 C 30,6 km/h (5 Bft)
04.03.2019 09:51 7,8 C 90 % 980,2 hPa 0,0 l/m 22,5 km/h (4 Bft) SW 235 0 min 28 W/m 6,3 C -0,4 C 37,0 km/h (5 Bft)
04.03.2019 09:54 7,8 C 90 % 980,2 hPa 0,0 l/m 24,9 km/h (4 Bft) SW 223 0 min 37 W/m 6,3 C -1,1 C 37,0 km/h (5 Bft)
04.03.2019 09:57 7,8 C 90 % 980,2 hPa 0,0 l/m 20,6 km/h (4 Bft) S-SW 192 0 min 37 W/m 6,3 C 0,2 C 35,4 km/h (5 Bft)
04.03.2019 10:00 7,8 C 90 % 979,9 hPa 0,0 l/m 21,7 km/h (4 Bft) S-SW 211 0 min 39 W/m 6,3 C -0,1 C 35,4 km/h (5 Bft)
04.03.2019 10:03 7,8 C 90 % 980,0 hPa 0,0 l/m 22,6 km/h (4 Bft) W-SW 240 0 min 88 W/m 6,3 C -0,4 C 37,0 km/h (5 Bft)
04.03.2019 10:06 7,9 C 90 % 980,0 hPa 0,0 l/m 22,3 km/h (4 Bft) SW 233 0 min 90 W/m 6,4 C -0,2 C 35,4 km/h (5 Bft)
04.03.2019 10:09 8,0 C 90 % 980,0 hPa 0,0 l/m 23,5 km/h (4 Bft) S 185 0 min 70 W/m 6,5 C -0,4 C 33,8 km/h (5 Bft)
04.03.2019 10:12 8,1 C 89 % 980,0 hPa 0,0 l/m 25,4 km/h (4 Bft) SW 215 0 min 54 W/m 6,4 C -0,9 C 37,0 km/h (5 Bft)
04.03.2019 10:15 8,1 C 89 % 979,9 hPa 0,0 l/m 17,4 km/h (3 Bft) S-SW 207 0 min 74 W/m 6,4 C 1,8 C 29,0 km/h (5 Bft)
04.03.2019 10:18 8,1 C 89 % 979,7 hPa 0,0 l/m 20,3 km/h (4 Bft) SW 219 0 min 93 W/m 6,4 C 0,7 C 33,8 km/h (5 Bft)
04.03.2019 10:21 8,2 C 89 % 979,7 hPa 0,0 l/m 24,2 km/h (4 Bft) S-SW 211 0 min 83 W/m 6,5 C -0,4 C 33,8 km/h (5 Bft)
04.03.2019 10:24 8,2 C 89 % 979,8 hPa 0,0 l/m 24,8 km/h (4 Bft) SW 232 0 min 79 W/m 6,5 C -0,6 C 40,2 km/h (6 Bft)
04.03.2019 10:27 8,2 C 89 % 979,8 hPa 0,0 l/m 24,2 km/h (4 Bft) SW 229 0 min 98 W/m 6,5 C -0,4 C 30,6 km/h (5 Bft)
04.03.2019 10:30 8,3 C 88 % 979,7 hPa 0,0 l/m 24,6 km/h (4 Bft) S-SW 211 0 min 127 W/m 6,4 C -0,4 C 41,8 km/h (6 Bft)
04.03.2019 10:33 8,3 C 88 % 979,7 hPa 0,0 l/m 24,8 km/h (4 Bft) S-SW 198 0 min 125 W/m 6,4 C -0,4 C 37,0 km/h (5 Bft)
04.03.2019 10:36 8,3 C 88 % 979,6 hPa 0,0 l/m 23,3 km/h (4 Bft) S-SW 194 0 min 141 W/m 6,4 C 0,0 C 30,6 km/h (5 Bft)
04.03.2019 10:39 8,4 C 88 % 979,6 hPa 0,0 l/m 23,4 km/h (4 Bft) S-SW 210 0 min 209 W/m 6,5 C 0,1 C 38,6 km/h (6 Bft)
04.03.2019 10:42 8,4 C 88 % 979,5 hPa 0,0 l/m 25,0 km/h (4 Bft) S-SW 213 0 min 188 W/m 6,5 C -0,3 C 38,6 km/h (6 Bft)
04.03.2019 10:45 8,6 C 88 % 979,5 hPa 0,0 l/m 24,0 km/h (4 Bft) S-SW 204 3 min 265 W/m 6,7 C 0,2 C 35,4 km/h (5 Bft)
04.03.2019 10:48 8,9 C 88 % 979,5 hPa 0,0 l/m 24,4 km/h (4 Bft) S-SW 209 3 min 265 W/m 7,0 C 0,5 C 40,2 km/h (6 Bft)
04.03.2019 10:51 9,2 C 87 % 979,4 hPa 0,0 l/m 24,6 km/h (4 Bft) W-SW 240 3 min 487 W/m 7,2 C 0,9 C 43,5 km/h (6 Bft)
04.03.2019 10:54 9,4 C 86 % 979,4 hPa 0,0 l/m 25,9 km/h (4 Bft) W-SW 241 3 min 262 W/m 7,2 C 0,8 C 35,4 km/h (5 Bft)
04.03.2019 10:57 9,4 C 85 % 979,5 hPa 0,0 l/m 27,2 km/h (5 Bft) SW 215 0 min 132 W/m 7,0 C 0,5 C 43,5 km/h (6 Bft)
04.03.2019 11:00 9,3 C 84 % 979,4 hPa 0,0 l/m 27,3 km/h (5 Bft) S 173 0 min 121 W/m 6,7 C 0,3 C 40,2 km/h (6 Bft)
04.03.2019 11:03 9,2 C 84 % 979,4 hPa 0,0 l/m 28,2 km/h (5 Bft) SW 223 0 min 149 W/m 6,6 C -0,1 C 43,5 km/h (6 Bft)
04.03.2019 11:06 9,1 C 84 % 979,5 hPa 0,0 l/m 26,6 km/h (4 Bft) S-SW 195 0 min 163 W/m 6,5 C 0,2 C 38,6 km/h (6 Bft)
04.03.2019 11:09 9,1 C 84 % 979,3 hPa 0,0 l/m 28,8 km/h (5 Bft) SW 221 0 min 151 W/m 6,5 C -0,3 C 38,6 km/h (6 Bft)
04.03.2019 11:12 9,0 C 84 % 979,4 hPa 0,0 l/m 24,6 km/h (4 Bft) S-SW 207 0 min 118 W/m 6,4 C 0,6 C 37,0 km/h (5 Bft)
04.03.2019 11:15 8,9 C 84 % 979,4 hPa 0,0 l/m 30,3 km/h (5 Bft) SW 236 0 min 97 W/m 6,3 C -1,0 C 40,2 km/h (6 Bft)
04.03.2019 11:18 8,9 C 83 % 979,5 hPa 0,0 l/m 31,0 km/h (5 Bft) SW 221 0 min 54 W/m 6,2 C -1,1 C 49,9 km/h (7 Bft)
04.03.2019 11:21 8,9 C 83 % 979,7 hPa 0,0 l/m 31,3 km/h (5 Bft) W-SW 244 0 min 37 W/m 6,2 C -1,2 C 46,7 km/h (6 Bft)
04.03.2019 11:24 8,7 C 83 % 980,6 hPa 0,6 l/m 34,6 km/h (5 Bft) W-SW 242 0 min 35 W/m 6,0 C -2,1 C 59,5 km/h (7 Bft)
04.03.2019 11:27 7,8 C 83 % 980,5 hPa 0,4 l/m 20,5 km/h (4 Bft) S-SW 194 0 min 44 W/m 5,1 C 0,3 C 51,5 km/h (7 Bft)
04.03.2019 11:30 7,3 C 85 % 980,4 hPa 0,0 l/m 18,1 km/h (3 Bft) W 265 0 min 74 W/m 4,9 C 0,5 C 29,0 km/h (5 Bft)
04.03.2019 11:33 7,1 C 88 % 980,5 hPa 0,0 l/m 18,3 km/h (3 Bft) SW 223 0 min 72 W/m 5,2 C 0,2 C 32,2 km/h (5 Bft)
04.03.2019 11:36 6,9 C 89 % 980,6 hPa 0,0 l/m 20,5 km/h (4 Bft) SW 234 0 min 83 W/m 5,2 C -0,9 C 30,6 km/h (5 Bft)
04.03.2019 11:39 6,8 C 90 % 980,7 hPa 0,0 l/m 11,8 km/h (2 Bft) S-SW 213 0 min 70 W/m 5,3 C 2,9 C 20,9 km/h (4 Bft)
04.03.2019 11:42 6,7 C 90 % 980,7 hPa 0,0 l/m 16,5 km/h (3 Bft) W-SW 244 0 min 86 W/m 5,2 C 0,4 C 30,6 km/h (5 Bft)
04.03.2019 11:45 6,6 C 90 % 980,8 hPa 0,0 l/m 18,2 km/h (3 Bft) W 274 0 min 74 W/m 5,1 C -0,4 C 30,6 km/h (5 Bft)
04.03.2019 11:48 6,4 C 90 % 980,9 hPa 0,0 l/m 16,1 km/h (3 Bft) SW 234 0 min 125 W/m 4,9 C 0,3 C 32,2 km/h (5 Bft)
04.03.2019 11:51 6,2 C 91 % 980,8 hPa 0,0 l/m 17,9 km/h (3 Bft) W-SW 246 0 min 142 W/m 4,8 C -0,8 C 30,6 km/h (5 Bft)
04.03.2019 11:54 6,2 C 91 % 980,8 hPa 0,0 l/m 16,8 km/h (3 Bft) SW 232 0 min 132 W/m 4,8 C -0,3 C 29,0 km/h (5 Bft)
04.03.2019 11:57 6,3 C 92 % 980,8 hPa 0,0 l/m 19,9 km/h (4 Bft) W 267 0 min 114 W/m 5,1 C -1,5 C 40,2 km/h (6 Bft)
04.03.2019 12:00 6,3 C 92 % 980,9 hPa 0,0 l/m 15,6 km/h (3 Bft) W-NW 301 0 min 135 W/m 5,1 C 0,4 C 29,0 km/h (5 Bft)
04.03.2019 12:03 6,3 C 92 % 981,0 hPa 0,0 l/m 21,4 km/h (4 Bft) S-SW 205 0 min 88 W/m 5,1 C -2,0 C 33,8 km/h (5 Bft)
04.03.2019 12:06 6,4 C 92 % 981,1 hPa 0,0 l/m 20,3 km/h (4 Bft) S-SW 207 0 min 84 W/m 5,2 C -1,5 C 33,8 km/h (5 Bft)
04.03.2019 12:09 6,4 C 92 % 981,0 hPa 0,0 l/m 24,4 km/h (4 Bft) SW 219 0 min 109 W/m 5,2 C -2,9 C 37,0 km/h (5 Bft)
04.03.2019 12:12 6,4 C 91 % 981,1 hPa 0,0 l/m 22,6 km/h (4 Bft) SW 225 0 min 84 W/m 5,0 C -2,3 C 41,8 km/h (6 Bft)
04.03.2019 12:15 6,4 C 91 % 981,3 hPa 0,0 l/m 25,7 km/h (4 Bft) SW 232 0 min 76 W/m 5,0 C -3,3 C 37,0 km/h (5 Bft)
04.03.2019 12:18 6,4 C 91 % 981,2 hPa 0,0 l/m 25,0 km/h (4 Bft) SW 221 0 min 86 W/m 5,0 C -3,0 C 41,8 km/h (6 Bft)
04.03.2019 12:21 6,4 C 91 % 981,2 hPa 0,0 l/m 21,7 km/h (4 Bft) W 265 0 min 104 W/m 5,0 C -2,0 C 41,8 km/h (6 Bft)
04.03.2019 12:24 6,5 C 91 % 981,4 hPa 0,0 l/m 27,7 km/h (5 Bft) SW 214 0 min 109 W/m 5,1 C -3,7 C 43,5 km/h (6 Bft)
04.03.2019 12:27 6,5 C 91 % 981,3 hPa 0,0 l/m 27,0 km/h (5 Bft) SW 234 0 min 134 W/m 5,1 C -3,5 C 41,8 km/h (6 Bft)
04.03.2019 12:30 6,6 C 91 % 981,4 hPa 0,0 l/m 27,8 km/h (5 Bft) S-SW 209 0 min 127 W/m 5,2 C -3,6 C 45,1 km/h (6 Bft)
04.03.2019 12:33 6,6 C 91 % 981,4 hPa 0,0 l/m 29,7 km/h (5 Bft) SW 224 0 min 86 W/m 5,2 C -4,1 C 49,9 km/h (7 Bft)
04.03.2019 12:36 6,6 C 91 % 981,4 hPa 0,0 l/m 30,4 km/h (5 Bft) SW 222 0 min 76 W/m 5,2 C -4,2 C 46,7 km/h (6 Bft)
04.03.2019 12:39 6,6 C 90 % 981,3 hPa 0,0 l/m 28,9 km/h (5 Bft) SW 219 0 min 76 W/m 5,1 C -3,9 C 40,2 km/h (6 Bft)
04.03.2019 12:42 6,6 C 90 % 981,4 hPa 0,0 l/m 27,8 km/h (5 Bft) SW 222 0 min 104 W/m 5,1 C -3,6 C 51,5 km/h (7 Bft)
04.03.2019 12:45 6,7 C 90 % 981,5 hPa 0,0 l/m 25,9 km/h (4 Bft) S-SW 202 0 min 121 W/m 5,2 C -2,9 C 45,1 km/h (6 Bft)
04.03.2019 12:48 6,7 C 90 % 981,4 hPa 0,0 l/m 26,6 km/h (4 Bft) S-SW 198 0 min 160 W/m 5,2 C -3,1 C 41,8 km/h (6 Bft)
04.03.2019 12:51 6,7 C 90 % 981,5 hPa 0,0 l/m 29,0 km/h (5 Bft) W-SW 246 0 min 144 W/m 5,2 C -3,7 C 40,2 km/h (6 Bft)
04.03.2019 12:54 6,8 C 89 % 981,4 hPa 0,0 l/m 29,2 km/h (5 Bft) S-SW 198 0 min 160 W/m 5,1 C -3,6 C 41,8 km/h (6 Bft)
04.03.2019 12:57 6,9 C 89 % 981,4 hPa 0,0 l/m 24,5 km/h (4 Bft) SW 233 0 min 257 W/m 5,2 C -2,2 C 37,0 km/h (5 Bft)
04.03.2019 13:00 6,9 C 89 % 981,4 hPa 0,0 l/m 29,1 km/h (5 Bft) W-SW 247 0 min 185 W/m 5,2 C -3,5 C 48,3 km/h (6 Bft)
04.03.2019 13:03 7,0 C 88 % 981,5 hPa 0,0 l/m 30,1 km/h (5 Bft) S-SW 203 0 min 105 W/m 5,2 C -3,6 C 45,1 km/h (6 Bft)
04.03.2019 13:06 7,0 C 88 % 981,5 hPa 0,0 l/m 27,8 km/h (5 Bft) SW 223 0 min 128 W/m 5,2 C -3,0 C 45,1 km/h (6 Bft)
04.03.2019 13:09 6,9 C 88 % 981,5 hPa 0,0 l/m 27,0 km/h (5 Bft) SW 223 0 min 100 W/m 5,1 C -2,9 C 43,5 km/h (6 Bft)
04.03.2019 13:12 6,9 C 88 % 981,5 hPa 0,0 l/m 30,8 km/h (5 Bft) W-SW 246 0 min 137 W/m 5,1 C -3,9 C 49,9 km/h (7 Bft)
04.03.2019 13:15 6,8 C 88 % 981,5 hPa 0,2 l/m 32,8 km/h (5 Bft) SW 223 0 min 84 W/m 5,0 C -4,5 C 56,3 km/h (7 Bft)
04.03.2019 13:18 6,8 C 88 % 981,5 hPa 0,0 l/m 31,7 km/h (5 Bft) S-SW 209 0 min 209 W/m 5,0 C -4,2 C 45,1 km/h (6 Bft)
04.03.2019 13:21 6,9 C 88 % 981,3 hPa 0,0 l/m 28,0 km/h (5 Bft) W 261 0 min 214 W/m 5,1 C -3,2 C 41,8 km/h (6 Bft)
04.03.2019 13:24 7,0 C 88 % 981,3 hPa 0,0 l/m 27,9 km/h (5 Bft) W-SW 249 0 min 116 W/m 5,2 C -3,0 C 43,5 km/h (6 Bft)
04.03.2019 13:27 7,0 C 87 % 981,4 hPa 0,0 l/m 27,5 km/h (5 Bft) SW 233 0 min 88 W/m 5,0 C -2,9 C 38,6 km/h (6 Bft)
04.03.2019 13:30 7,1 C 87 % 981,7 hPa 0,0 l/m 21,2 km/h (4 Bft) W-SW 244 0 min 62 W/m 5,1 C -0,9 C 32,2 km/h (5 Bft)
04.03.2019 13:33 7,0 C 88 % 981,6 hPa 0,2 l/m 23,3 km/h (4 Bft) W-SW 243 0 min 74 W/m 5,2 C -1,7 C 41,8 km/h (6 Bft)
04.03.2019 13:36 6,8 C 88 % 981,7 hPa 0,2 l/m 27,9 km/h (5 Bft) W-SW 248 0 min 77 W/m 5,0 C -3,3 C 43,5 km/h (6 Bft)
04.03.2019 13:39 6,6 C 88 % 981,6 hPa 0,0 l/m 27,9 km/h (5 Bft) SW 230 0 min 81 W/m 4,8 C -3,6 C 45,1 km/h (6 Bft)
04.03.2019 13:42 6,5 C 89 % 981,6 hPa 0,0 l/m 23,2 km/h (4 Bft) SW 224 0 min 100 W/m 4,8 C -2,3 C 33,8 km/h (5 Bft)
04.03.2019 13:45 6,4 C 89 % 981,6 hPa 0,2 l/m 29,5 km/h (5 Bft) SW 222 0 min 128 W/m 4,7 C -4,3 C 51,5 km/h (7 Bft)
04.03.2019 13:48 6,4 C 89 % 981,6 hPa 0,0 l/m 27,0 km/h (5 Bft) SW 232 0 min 146 W/m 4,7 C -3,6 C 49,9 km/h (7 Bft)
04.03.2019 13:51 6,5 C 89 % 981,6 hPa 0,0 l/m 25,4 km/h (4 Bft) W-SW 257 0 min 74 W/m 4,8 C -3,0 C 43,5 km/h (6 Bft)
04.03.2019 13:54 6,5 C 89 % 981,6 hPa 0,0 l/m 29,7 km/h (5 Bft) W-SW 244 0 min 79 W/m 4,8 C -4,2 C 43,5 km/h (6 Bft)
04.03.2019 13:57 6,6 C 89 % 981,6 hPa 0,0 l/m 24,7 km/h (4 Bft) S-SW 209 0 min 81 W/m 4,9 C -2,7 C 33,8 km/h (5 Bft)
04.03.2019 14:00 6,6 C 89 % 981,6 hPa 0,0 l/m 26,3 km/h (4 Bft) W-SW 240 0 min 116 W/m 4,9 C -3,2 C 43,5 km/h (6 Bft)
04.03.2019 14:03 6,7 C 89 % 981,6 hPa 0,0 l/m 28,5 km/h (5 Bft) S-SW 211 0 min 118 W/m 5,0 C -3,6 C 40,2 km/h (6 Bft)
04.03.2019 14:06 6,7 C 89 % 981,7 hPa 0,0 l/m 32,3 km/h (5 Bft) S-SW 200 0 min 116 W/m 5,0 C -4,5 C 43,5 km/h (6 Bft)
04.03.2019 14:09 6,7 C 89 % 981,6 hPa 0,0 l/m 30,4 km/h (5 Bft) S-SW 197 0 min 146 W/m 5,0 C -4,1 C 41,8 km/h (6 Bft)
04.03.2019 14:12 6,8 C 88 % 981,7 hPa 0,0 l/m 30,0 km/h (5 Bft) SW 233 0 min 91 W/m 5,0 C -3,8 C 45,1 km/h (6 Bft)
04.03.2019 14:15 6,8 C 88 % 981,7 hPa 0,0 l/m 29,9 km/h (5 Bft) W 259 0 min 81 W/m 5,0 C -3,8 C 41,8 km/h (6 Bft)
04.03.2019 14:18 6,8 C 88 % 981,6 hPa 0,0 l/m 30,1 km/h (5 Bft) S-SW 213 0 min 113 W/m 5,0 C -3,9 C 45,1 km/h (6 Bft)
04.03.2019 14:21 6,8 C 88 % 981,6 hPa 0,0 l/m 31,0 km/h (5 Bft) SW 218 0 min 100 W/m 5,0 C -4,1 C 45,1 km/h (6 Bft)
04.03.2019 14:24 6,8 C 88 % 981,7 hPa 0,0 l/m 29,6 km/h (5 Bft) W-SW 241 0 min 93 W/m 5,0 C -3,7 C 40,2 km/h (6 Bft)
04.03.2019 14:27 6,8 C 88 % 981,6 hPa 0,0 l/m 31,8 km/h (5 Bft) SW 215 0 min 88 W/m 5,0 C -4,3 C 51,5 km/h (7 Bft)
04.03.2019 14:30 6,8 C 87 % 981,6 hPa 0,0 l/m 29,9 km/h (5 Bft) SW 216 0 min 62 W/m 4,8 C -3,8 C 46,7 km/h (6 Bft)
04.03.2019 14:33 6,8 C 87 % 981,6 hPa 0,0 l/m 33,8 km/h (5 Bft) SW 230 0 min 62 W/m 4,8 C -4,7 C 54,7 km/h (7 Bft)
04.03.2019 14:36 6,9 C 87 % 981,7 hPa 0,0 l/m 34,4 km/h (5 Bft) W-SW 238 0 min 47 W/m 4,9 C -4,7 C 49,9 km/h (7 Bft)
04.03.2019 14:39 6,9 C 87 % 981,7 hPa 0,0 l/m 27,4 km/h (5 Bft) S-SW 195 0 min 51 W/m 4,9 C -3,0 C 40,2 km/h (6 Bft)
04.03.2019 14:42 6,8 C 87 % 981,8 hPa 0,0 l/m 31,9 km/h (5 Bft) SW 217 0 min 60 W/m 4,8 C -4,3 C 48,3 km/h (6 Bft)
04.03.2019 14:45 6,8 C 87 % 981,9 hPa 0,0 l/m 37,4 km/h (5 Bft) S-SW 208 0 min 62 W/m 4,8 C -5,4 C 54,7 km/h (7 Bft)
04.03.2019 14:48 6,8 C 87 % 981,9 hPa 0,0 l/m 36,5 km/h (5 Bft) W-SW 240 0 min 76 W/m 4,8 C -5,2 C 61,2 km/h (7 Bft)
04.03.2019 14:51 6,8 C 87 % 981,9 hPa 0,0 l/m 31,6 km/h (5 Bft) SW 236 0 min 81 W/m 4,8 C -4,2 C 54,7 km/h (7 Bft)
04.03.2019 14:54 6,7 C 87 % 982,0 hPa 0,0 l/m 32,1 km/h (5 Bft) SW 224 0 min 70 W/m 4,7 C -4,5 C 53,1 km/h (7 Bft)
04.03.2019 14:57 6,7 C 88 % 982,0 hPa 0,0 l/m 30,2 km/h (5 Bft) W-SW 256 0 min 114 W/m 4,9 C -4,0 C 49,9 km/h (7 Bft)
04.03.2019 15:00 6,7 C 88 % 981,9 hPa 0,0 l/m 30,0 km/h (5 Bft) SW 221 0 min 74 W/m 4,9 C -4,0 C 46,7 km/h (6 Bft)
04.03.2019 15:03 6,7 C 89 % 981,9 hPa 0,0 l/m 29,7 km/h (5 Bft) W-SW 246 0 min 54 W/m 5,0 C -3,9 C 46,7 km/h (6 Bft)
04.03.2019 15:06 6,6 C 89 % 982,0 hPa 0,0 l/m 30,3 km/h (5 Bft) W-SW 240 0 min 49 W/m 4,9 C -4,2 C 49,9 km/h (7 Bft)
04.03.2019 15:09 6,6 C 89 % 982,0 hPa 0,0 l/m 31,1 km/h (5 Bft) W 275 0 min 62 W/m 4,9 C -4,4 C 49,9 km/h (7 Bft)
04.03.2019 15:12 6,6 C 89 % 982,1 hPa 0,2 l/m 30,7 km/h (5 Bft) S-SW 198 0 min 53 W/m 4,9 C -4,3 C 48,3 km/h (6 Bft)
04.03.2019 15:15 6,5 C 89 % 982,0 hPa 0,0 l/m 33,6 km/h (5 Bft) S-SW 199 0 min 56 W/m 4,8 C -5,1 C 45,1 km/h (6 Bft)
04.03.2019 15:18 6,4 C 90 % 982,0 hPa 0,0 l/m 35,8 km/h (5 Bft) SW 225 0 min 35 W/m 4,9 C -5,7 C 53,1 km/h (7 Bft)
04.03.2019 15:21 6,4 C 90 % 982,2 hPa 0,2 l/m 31,2 km/h (5 Bft) SW 231 0 min 47 W/m 4,9 C -4,7 C 53,1 km/h (7 Bft)
04.03.2019 15:24 6,4 C 90 % 982,1 hPa 0,0 l/m 32,9 km/h (5 Bft) W-SW 243 0 min 47 W/m 4,9 C -5,1 C 61,2 km/h (7 Bft)
04.03.2019 15:27 6,4 C 90 % 982,1 hPa 0,0 l/m 31,2 km/h (5 Bft) W-SW 253 0 min 47 W/m 4,9 C -4,7 C 49,9 km/h (7 Bft)
04.03.2019 15:30 6,4 C 90 % 982,1 hPa 0,2 l/m 29,8 km/h (5 Bft) S-SW 211 0 min 42 W/m 4,9 C -4,4 C 48,3 km/h (6 Bft)
04.03.2019 15:33 6,4 C 91 % 982,1 hPa 0,0 l/m 29,2 km/h (5 Bft) W-SW 245 0 min 58 W/m 5,0 C -4,2 C 43,5 km/h (6 Bft)
04.03.2019 15:36 6,4 C 91 % 982,3 hPa 0,0 l/m 32,5 km/h (5 Bft) W-SW 240 0 min 26 W/m 5,0 C -5,0 C 46,7 km/h (6 Bft)
04.03.2019 15:39 6,4 C 91 % 982,3 hPa 0,2 l/m 32,8 km/h (5 Bft) SW 220 0 min 19 W/m 5,0 C -5,1 C 49,9 km/h (7 Bft)
04.03.2019 15:42 6,4 C 91 % 982,4 hPa 0,2 l/m 24,3 km/h (4 Bft) SW 229 0 min 32 W/m 5,0 C -2,8 C 35,4 km/h (5 Bft)
04.03.2019 15:45 6,4 C 91 % 982,4 hPa 0,0 l/m 24,0 km/h (4 Bft) S-SW 207 0 min 26 W/m 5,0 C -2,7 C 46,7 km/h (6 Bft)
04.03.2019 15:48 6,4 C 91 % 982,5 hPa 0,0 l/m 27,4 km/h (5 Bft) SW 225 0 min 28 W/m 5,0 C -3,7 C 40,2 km/h (6 Bft)
04.03.2019 15:51 6,4 C 92 % 982,5 hPa 0,2 l/m 28,9 km/h (5 Bft) S-SW 201 0 min 32 W/m 5,2 C -4,1 C 49,9 km/h (7 Bft)
04.03.2019 15:54 6,4 C 92 % 982,5 hPa 0,0 l/m 28,0 km/h (5 Bft) SW 217 0 min 26 W/m 5,2 C -3,9 C 51,5 km/h (7 Bft)
04.03.2019 15:57 6,4 C 92 % 982,5 hPa 0,0 l/m 30,7 km/h (5 Bft) SW 227 0 min 26 W/m 5,2 C -4,6 C 43,5 km/h (6 Bft)
04.03.2019 16:00 6,4 C 92 % 982,5 hPa 0,0 l/m 31,1 km/h (5 Bft) SW 225 0 min 26 W/m 5,2 C -4,7 C 51,5 km/h (7 Bft)
04.03.2019 16:03 6,4 C 92 % 982,6 hPa 0,2 l/m 30,8 km/h (5 Bft) W 263 0 min 23 W/m 5,2 C -4,6 C 49,9 km/h (7 Bft)
04.03.2019 16:06 6,4 C 92 % 982,6 hPa 0,0 l/m 29,2 km/h (5 Bft) W 273 0 min 25 W/m 5,2 C -4,2 C 46,7 km/h (6 Bft)
04.03.2019 16:09 6,4 C 92 % 982,7 hPa 0,0 l/m 27,4 km/h (5 Bft) W-SW 250 0 min 26 W/m 5,2 C -3,7 C 51,5 km/h (7 Bft)
04.03.2019 16:12 6,4 C 92 % 982,8 hPa 0,0 l/m 29,0 km/h (5 Bft) W-SW 245 0 min 21 W/m 5,2 C -4,2 C 51,5 km/h (7 Bft)
04.03.2019 16:15 6,4 C 92 % 982,8 hPa 0,2 l/m 33,2 km/h (5 Bft) SW 224 0 min 28 W/m 5,2 C -5,1 C 53,1 km/h (7 Bft)
04.03.2019 16:18 6,4 C 92 % 982,9 hPa 0,0 l/m 34,4 km/h (5 Bft) W-SW 254 0 min 28 W/m 5,2 C -5,4 C 66,0 km/h (8 Bft)
04.03.2019 16:21 6,5 C 92 % 982,9 hPa 0,0 l/m 29,5 km/h (5 Bft) W 271 0 min 35 W/m 5,3 C -4,1 C 59,5 km/h (7 Bft)
04.03.2019 16:24 6,5 C 92 % 983,1 hPa 0,0 l/m 27,9 km/h (5 Bft) SW 223 0 min 28 W/m 5,3 C -3,7 C 53,1 km/h (7 Bft)
04.03.2019 16:27 6,6 C 92 % 983,2 hPa 0,0 l/m 30,1 km/h (5 Bft) SW 234 0 min 26 W/m 5,4 C -4,1 C 62,8 km/h (7 Bft)
04.03.2019 16:30 6,6 C 92 % 983,0 hPa 0,0 l/m 26,2 km/h (4 Bft) S-SW 212 0 min 30 W/m 5,4 C -3,1 C 53,1 km/h (7 Bft)
04.03.2019 16:33 6,5 C 92 % 983,3 hPa 0,0 l/m 26,9 km/h (4 Bft) SW 225 0 min 26 W/m 5,3 C -3,5 C 48,3 km/h (6 Bft)
04.03.2019 16:36 6,5 C 92 % 983,2 hPa 0,0 l/m 29,3 km/h (5 Bft) S-SW 196 0 min 26 W/m 5,3 C -4,1 C 51,5 km/h (7 Bft)
04.03.2019 16:39 6,5 C 92 % 983,3 hPa 0,2 l/m 28,6 km/h (5 Bft) W 270 0 min 26 W/m 5,3 C -3,9 C 54,7 km/h (7 Bft)
04.03.2019 16:42 6,5 C 92 % 983,2 hPa 0,0 l/m 31,1 km/h (5 Bft) W 266 0 min 28 W/m 5,3 C -4,5 C 51,5 km/h (7 Bft)
04.03.2019 16:45 6,5 C 92 % 983,4 hPa 0,0 l/m 30,8 km/h (5 Bft) W-SW 255 0 min 26 W/m 5,3 C -4,5 C 49,9 km/h (7 Bft)
04.03.2019 16:48 6,6 C 92 % 983,4 hPa 0,0 l/m 26,2 km/h (4 Bft) W 261 0 min 25 W/m 5,4 C -3,1 C 41,8 km/h (6 Bft)
04.03.2019 16:51 6,6 C 92 % 983,5 hPa 0,0 l/m 27,4 km/h (5 Bft) W-SW 242 0 min 23 W/m 5,4 C -3,5 C 51,5 km/h (7 Bft)
04.03.2019 16:54 6,6 C 92 % 983,4 hPa 0,0 l/m 30,4 km/h (5 Bft) W 261 0 min 21 W/m 5,4 C -4,2 C 51,5 km/h (7 Bft)
04.03.2019 16:57 6,6 C 92 % 983,5 hPa 0,0 l/m 33,5 km/h (5 Bft) SW 224 0 min 25 W/m 5,4 C -4,9 C 61,2 km/h (7 Bft)
04.03.2019 17:00 6,6 C 92 % 983,6 hPa 0,0 l/m 31,2 km/h (5 Bft) SW 234 0 min 23 W/m 5,4 C -4,4 C 49,9 km/h (7 Bft)
04.03.2019 17:03 6,6 C 92 % 983,8 hPa 0,0 l/m 27,8 km/h (5 Bft) SW 233 0 min 19 W/m 5,4 C -3,6 C 54,7 km/h (7 Bft)
04.03.2019 17:06 6,7 C 92 % 983,7 hPa 0,0 l/m 28,2 km/h (5 Bft) W 267 0 min 16 W/m 5,5 C -3,5 C 43,5 km/h (6 Bft)
04.03.2019 17:09 6,7 C 92 % 983,7 hPa 0,2 l/m 27,1 km/h (5 Bft) W-SW 257 0 min 14 W/m 5,5 C -3,2 C 56,3 km/h (7 Bft)
04.03.2019 17:12 6,7 C 92 % 983,9 hPa 0,0 l/m 32,7 km/h (5 Bft) SW 236 0 min 14 W/m 5,5 C -4,6 C 54,7 km/h (7 Bft)
04.03.2019 17:15 6,7 C 92 % 983,9 hPa 0,2 l/m 29,9 km/h (5 Bft) W-SW 246 0 min 12 W/m 5,5 C -4,0 C 54,7 km/h (7 Bft)
04.03.2019 17:18 6,6 C 92 % 983,9 hPa 0,0 l/m 30,0 km/h (5 Bft) W-SW 244 0 min 14 W/m 5,4 C -4,1 C 54,7 km/h (7 Bft)
04.03.2019 17:21 6,6 C 92 % 983,9 hPa 0,0 l/m 27,4 km/h (5 Bft) SW 233 0 min 14 W/m 5,4 C -3,5 C 45,1 km/h (6 Bft)
04.03.2019 17:24 6,6 C 92 % 984,2 hPa 0,0 l/m 27,9 km/h (5 Bft) W 270 0 min 14 W/m 5,4 C -3,6 C 51,5 km/h (7 Bft)
04.03.2019 17:27 6,6 C 92 % 984,2 hPa 0,0 l/m 27,8 km/h (5 Bft) W-SW 256 0 min 12 W/m 5,4 C -3,6 C 45,1 km/h (6 Bft)
04.03.2019 17:30 6,6 C 92 % 984,3 hPa 0,0 l/m 35,7 km/h (5 Bft) W-SW 257 0 min 14 W/m 5,4 C -5,4 C 54,7 km/h (7 Bft)
04.03.2019 17:33 6,6 C 92 % 984,3 hPa 0,0 l/m 28,3 km/h (5 Bft) SW 216 0 min 12 W/m 5,4 C -3,7 C 49,9 km/h (7 Bft)
04.03.2019 17:36 6,6 C 92 % 984,4 hPa 0,0 l/m 24,6 km/h (4 Bft) S-SW 213 0 min 11 W/m 5,4 C -2,7 C 45,1 km/h (6 Bft)
04.03.2019 17:39 6,6 C 92 % 984,6 hPa 0,0 l/m 28,3 km/h (5 Bft) W 271 0 min 11 W/m 5,4 C -3,7 C 49,9 km/h (7 Bft)
04.03.2019 17:42 6,6 C 92 % 984,6 hPa 0,2 l/m 26,0 km/h (4 Bft) W-SW 252 0 min 9 W/m 5,4 C -3,1 C 49,9 km/h (7 Bft)
04.03.2019 17:45 6,6 C 92 % 984,7 hPa 0,0 l/m 30,9 km/h (5 Bft) SW 231 0 min 7 W/m 5,4 C -4,3 C 57,9 km/h (7 Bft)
04.03.2019 17:48 6,6 C 92 % 984,7 hPa 0,0 l/m 28,3 km/h (5 Bft) W 270 0 min 7 W/m 5,4 C -3,7 C 49,9 km/h (7 Bft)
04.03.2019 17:51 6,6 C 92 % 984,7 hPa 0,0 l/m 30,2 km/h (5 Bft) SW 229 0 min 5 W/m 5,4 C -4,2 C 54,7 km/h (7 Bft)
04.03.2019 17:54 6,6 C 92 % 984,8 hPa 0,0 l/m 33,1 km/h (5 Bft) W-SW 254 0 min 5 W/m 5,4 C -4,8 C 51,5 km/h (7 Bft)
04.03.2019 17:57 6,6 C 92 % 985,0 hPa 0,0 l/m 32,3 km/h (5 Bft) SW 218 0 min 0 W/m 5,4 C -4,7 C 49,9 km/h (7 Bft)
04.03.2019 18:00 6,7 C 91 % 985,0 hPa 0,0 l/m 34,8 km/h (5 Bft) W-SW 254 0 min 0 W/m 5,3 C -5,0 C 49,9 km/h (7 Bft)
04.03.2019 18:03 6,7 C 91 % 985,0 hPa 0,0 l/m 34,5 km/h (5 Bft) W-NW 301 0 min 0 W/m 5,3 C -5,0 C 46,7 km/h (6 Bft)
04.03.2019 18:06 6,7 C 91 % 985,0 hPa 0,0 l/m 31,1 km/h (5 Bft) W 264 0 min 0 W/m 5,3 C -4,2 C 57,9 km/h (7 Bft)
04.03.2019 18:09 6,8 C 90 % 985,0 hPa 0,0 l/m 29,1 km/h (5 Bft) W-SW 242 0 min 0 W/m 5,3 C -3,6 C 57,9 km/h (7 Bft)
04.03.2019 18:12 6,8 C 90 % 985,2 hPa 0,0 l/m 28,1 km/h (5 Bft) W-SW 241 0 min 0 W/m 5,3 C -3,4 C 61,2 km/h (7 Bft)
04.03.2019 18:15 6,9 C 90 % 985,4 hPa 0,0 l/m 34,0 km/h (5 Bft) W-SW 246 0 min 0 W/m 5,4 C -4,6 C 51,5 km/h (7 Bft)
04.03.2019 18:18 6,9 C 89 % 985,5 hPa 0,0 l/m 31,6 km/h (5 Bft) W-NW 303 0 min 0 W/m 5,2 C -4,1 C 54,7 km/h (7 Bft)
04.03.2019 18:21 6,9 C 89 % 985,6 hPa 0,0 l/m 28,8 km/h (5 Bft) W-SW 238 0 min 0 W/m 5,2 C -3,4 C 45,1 km/h (6 Bft)
04.03.2019 18:24 7,0 C 89 % 985,7 hPa 0,0 l/m 29,3 km/h (5 Bft) W-SW 254 0 min 0 W/m 5,3 C -3,4 C 46,7 km/h (6 Bft)
04.03.2019 18:27 7,0 C 89 % 985,7 hPa 0,0 l/m 31,8 km/h (5 Bft) NW 305 0 min 0 W/m 5,3 C -4,0 C 53,1 km/h (7 Bft)
04.03.2019 18:30 7,1 C 88 % 985,8 hPa 0,0 l/m 27,0 km/h (5 Bft) W-SW 249 0 min 0 W/m 5,2 C -2,7 C 51,5 km/h (7 Bft)
04.03.2019 18:33 7,1 C 88 % 985,7 hPa 0,0 l/m 25,0 km/h (4 Bft) W-SW 252 0 min 0 W/m 5,2 C -2,1 C 48,3 km/h (6 Bft)
04.03.2019 18:36 7,1 C 88 % 985,9 hPa 0,0 l/m 31,1 km/h (5 Bft) W 266 0 min 0 W/m 5,2 C -3,7 C 51,5 km/h (7 Bft)
04.03.2019 18:39 7,1 C 87 % 986,0 hPa 0,0 l/m 33,7 km/h (5 Bft) W 265 0 min 0 W/m 5,1 C -4,2 C 56,3 km/h (7 Bft)
04.03.2019 18:42 7,2 C 87 % 986,1 hPa 0,0 l/m 34,2 km/h (5 Bft) W 263 0 min 0 W/m 5,2 C -4,2 C 51,5 km/h (7 Bft)
04.03.2019 18:45 7,2 C 87 % 986,1 hPa 0,0 l/m 30,3 km/h (5 Bft) W-NW 294 0 min 0 W/m 5,2 C -3,4 C 49,9 km/h (7 Bft)
04.03.2019 18:48 7,2 C 87 % 986,3 hPa 0,0 l/m 28,7 km/h (5 Bft) SW 234 0 min 0 W/m 5,2 C -3,0 C 48,3 km/h (6 Bft)
04.03.2019 18:51 7,2 C 87 % 986,4 hPa 0,0 l/m 27,2 km/h (5 Bft) W 271 0 min 0 W/m 5,2 C -2,6 C 54,7 km/h (7 Bft)
04.03.2019 18:54 7,2 C 87 % 986,3 hPa 0,0 l/m 32,1 km/h (5 Bft) SW 236 0 min 0 W/m 5,2 C -3,8 C 51,5 km/h (7 Bft)
04.03.2019 18:57 7,2 C 87 % 986,5 hPa 0,0 l/m 30,4 km/h (5 Bft) SW 226 0 min 0 W/m 5,2 C -3,4 C 48,3 km/h (6 Bft)
04.03.2019 19:00 7,2 C 86 % 986,6 hPa 0,0 l/m 26,7 km/h (4 Bft) W-SW 242 0 min 0 W/m 5,0 C -2,4 C 46,7 km/h (6 Bft)
04.03.2019 19:03 7,2 C 86 % 986,5 hPa 0,0 l/m 30,9 km/h (5 Bft) W-SW 248 0 min 0 W/m 5,0 C -3,5 C 56,3 km/h (7 Bft)
04.03.2019 19:06 7,2 C 86 % 986,6 hPa 0,0 l/m 28,5 km/h (5 Bft) W-SW 249 0 min 0 W/m 5,0 C -2,9 C 54,7 km/h (7 Bft)
04.03.2019 19:09 7,2 C 85 % 986,6 hPa 0,0 l/m 32,0 km/h (5 Bft) W-SW 240 0 min 0 W/m 4,9 C -3,7 C 54,7 km/h (7 Bft)
04.03.2019 19:12 7,3 C 86 % 986,4 hPa 0,0 l/m 29,0 km/h (5 Bft) W 271 0 min 0 W/m 5,1 C -2,9 C 46,7 km/h (6 Bft)
04.03.2019 19:15 7,3 C 85 % 986,7 hPa 0,0 l/m 33,4 km/h (5 Bft) SW 223 0 min 0 W/m 4,9 C -3,9 C 57,9 km/h (7 Bft)
04.03.2019 19:18 7,3 C 85 % 986,7 hPa 0,0 l/m 30,1 km/h (5 Bft) W-SW 244 0 min 0 W/m 4,9 C -3,2 C 53,1 km/h (7 Bft)
04.03.2019 19:21 7,3 C 85 % 986,8 hPa 0,0 l/m 32,6 km/h (5 Bft) SW 233 0 min 0 W/m 4,9 C -3,7 C 56,3 km/h (7 Bft)
04.03.2019 19:24 7,3 C 84 % 986,9 hPa 0,0 l/m 29,0 km/h (5 Bft) W-SW 257 0 min 0 W/m 4,8 C -2,9 C 46,7 km/h (6 Bft)
04.03.2019 19:27 7,3 C 85 % 987,0 hPa 0,0 l/m 31,4 km/h (5 Bft) W-SW 240 0 min 0 W/m 4,9 C -3,5 C 45,1 km/h (6 Bft)
04.03.2019 19:30 7,3 C 85 % 987,0 hPa 0,0 l/m 28,6 km/h (5 Bft) W-SW 258 0 min 0 W/m 4,9 C -2,8 C 46,7 km/h (6 Bft)
04.03.2019 19:33 7,3 C 85 % 987,1 hPa 0,0 l/m 27,7 km/h (5 Bft) W-SW 250 0 min 0 W/m 4,9 C -2,6 C 49,9 km/h (7 Bft)
04.03.2019 19:36 7,3 C 85 % 987,2 hPa 0,0 l/m 33,7 km/h (5 Bft) W 263 0 min 0 W/m 4,9 C -4,0 C 49,9 km/h (7 Bft)
04.03.2019 19:39 7,3 C 84 % 987,3 hPa 0,0 l/m 27,4 km/h (5 Bft) SW 226 0 min 0 W/m 4,8 C -2,5 C 51,5 km/h (7 Bft)
04.03.2019 19:42 7,3 C 84 % 987,2 hPa 0,0 l/m 28,3 km/h (5 Bft) W 271 0 min 0 W/m 4,8 C -2,7 C 48,3 km/h (6 Bft)
04.03.2019 19:45 7,3 C 84 % 987,2 hPa 0,0 l/m 25,0 km/h (4 Bft) W 277 0 min 0 W/m 4,8 C -1,8 C 37,0 km/h (5 Bft)
04.03.2019 19:48 7,2 C 84 % 987,3 hPa 0,0 l/m 28,3 km/h (5 Bft) SW 219 0 min 0 W/m 4,7 C -2,9 C 45,1 km/h (6 Bft)
04.03.2019 19:51 7,3 C 84 % 987,4 hPa 0,0 l/m 27,9 km/h (5 Bft) W-SW 254 0 min 0 W/m 4,8 C -2,6 C 43,5 km/h (6 Bft)
04.03.2019 19:54 7,3 C 84 % 987,5 hPa 0,0 l/m 30,2 km/h (5 Bft) SW 223 0 min 0 W/m 4,8 C -3,2 C 48,3 km/h (6 Bft)
04.03.2019 19:57 7,3 C 84 % 987,5 hPa 0,0 l/m 30,7 km/h (5 Bft) W-SW 250 0 min 0 W/m 4,8 C -3,3 C 46,7 km/h (6 Bft)
04.03.2019 20:00 7,3 C 83 % 987,7 hPa 0,0 l/m 30,7 km/h (5 Bft) W 265 0 min 0 W/m 4,6 C -3,3 C 54,7 km/h (7 Bft)
04.03.2019 20:03 7,3 C 83 % 987,7 hPa 0,0 l/m 27,4 km/h (5 Bft) W-SW 258 0 min 0 W/m 4,6 C -2,5 C 43,5 km/h (6 Bft)
04.03.2019 20:06 7,4 C 83 % 987,7 hPa 0,0 l/m 28,6 km/h (5 Bft) S 183 0 min 0 W/m 4,7 C -2,7 C 53,1 km/h (7 Bft)
04.03.2019 20:09 7,4 C 83 % 987,8 hPa 0,0 l/m 23,4 km/h (4 Bft) SW 223 0 min 0 W/m 4,7 C -1,2 C 41,8 km/h (6 Bft)
04.03.2019 20:12 7,4 C 83 % 987,8 hPa 0,0 l/m 25,9 km/h (4 Bft) W-SW 253 0 min 0 W/m 4,7 C -1,9 C 46,7 km/h (6 Bft)
04.03.2019 20:15 7,4 C 83 % 988,0 hPa 0,0 l/m 33,9 km/h (5 Bft) W-NW 294 0 min 0 W/m 4,7 C -3,9 C 53,1 km/h (7 Bft)
04.03.2019 20:18 7,4 C 83 % 988,1 hPa 0,0 l/m 27,8 km/h (5 Bft) W-NW 301 0 min 0 W/m 4,7 C -2,5 C 45,1 km/h (6 Bft)
04.03.2019 20:21 7,3 C 83 % 988,0 hPa 0,0 l/m 30,6 km/h (5 Bft) W 278 0 min 0 W/m 4,6 C -3,3 C 53,1 km/h (7 Bft)
04.03.2019 20:24 7,3 C 83 % 988,2 hPa 0,0 l/m 32,0 km/h (5 Bft) W 268 0 min 0 W/m 4,6 C -3,6 C 61,2 km/h (7 Bft)
04.03.2019 20:27 7,3 C 83 % 988,1 hPa 0,0 l/m 31,1 km/h (5 Bft) W-SW 242 0 min 0 W/m 4,6 C -3,4 C 56,3 km/h (7 Bft)
04.03.2019 20:30 7,3 C 83 % 988,2 hPa 0,0 l/m 34,5 km/h (5 Bft) SW 225 0 min 0 W/m 4,6 C -4,1 C 56,3 km/h (7 Bft)
04.03.2019 20:33 7,4 C 82 % 988,2 hPa 0,0 l/m 23,7 km/h (4 Bft) W-NW 289 0 min 0 W/m 4,5 C -1,3 C 53,1 km/h (7 Bft)
04.03.2019 20:36 7,4 C 82 % 988,3 hPa 0,0 l/m 33,7 km/h (5 Bft) S-SW 198 0 min 0 W/m 4,5 C -3,8 C 53,1 km/h (7 Bft)
04.03.2019 20:39 7,4 C 82 % 988,5 hPa 0,0 l/m 29,3 km/h (5 Bft) SW 231 0 min 0 W/m 4,5 C -2,8 C 48,3 km/h (6 Bft)
04.03.2019 20:42 7,4 C 82 % 988,6 hPa 0,0 l/m 29,8 km/h (5 Bft) W-SW 242 0 min 0 W/m 4,5 C -3,0 C 46,7 km/h (6 Bft)
04.03.2019 20:45 7,4 C 82 % 988,6 hPa 0,0 l/m 23,3 km/h (4 Bft) S-SW 213 0 min 0 W/m 4,5 C -1,2 C 40,2 km/h (6 Bft)
04.03.2019 20:48 7,4 C 83 % 988,6 hPa 0,0 l/m 21,6 km/h (4 Bft) SW 236 0 min 0 W/m 4,7 C -0,6 C 41,8 km/h (6 Bft)
04.03.2019 20:51 7,3 C 83 % 988,7 hPa 0,0 l/m 25,7 km/h (4 Bft) W-SW 238 0 min 0 W/m 4,6 C -2,0 C 43,5 km/h (6 Bft)
04.03.2019 20:54 7,3 C 83 % 988,8 hPa 0,0 l/m 21,2 km/h (4 Bft) SW 232 0 min 0 W/m 4,6 C -0,6 C 38,6 km/h (6 Bft)
04.03.2019 20:57 7,3 C 83 % 988,8 hPa 0,0 l/m 22,1 km/h (4 Bft) W 271 0 min 0 W/m 4,6 C -0,9 C 37,0 km/h (5 Bft)
04.03.2019 21:00 7,3 C 84 % 988,8 hPa 0,0 l/m 23,7 km/h (4 Bft) SW 229 0 min 0 W/m 4,8 C -1,4 C 38,6 km/h (6 Bft)
04.03.2019 21:03 7,3 C 84 % 988,9 hPa 0,0 l/m 24,4 km/h (4 Bft) W 259 0 min 0 W/m 4,8 C -1,6 C 45,1 km/h (6 Bft)
04.03.2019 21:06 7,3 C 84 % 988,9 hPa 0,0 l/m 25,6 km/h (4 Bft) W-SW 242 0 min 0 W/m 4,8 C -2,0 C 40,2 km/h (6 Bft)
04.03.2019 21:09 7,3 C 84 % 988,9 hPa 0,0 l/m 24,2 km/h (4 Bft) W-SW 249 0 min 0 W/m 4,8 C -1,6 C 45,1 km/h (6 Bft)
04.03.2019 21:12 7,3 C 84 % 989,0 hPa 0,0 l/m 26,8 km/h (4 Bft) SW 225 0 min 0 W/m 4,8 C -2,3 C 43,5 km/h (6 Bft)
04.03.2019 21:15 7,3 C 84 % 989,1 hPa 0,0 l/m 27,3 km/h (5 Bft) W-SW 249 0 min 0 W/m 4,8 C -2,5 C 49,9 km/h (7 Bft)
04.03.2019 21:18 7,3 C 84 % 989,1 hPa 0,0 l/m 24,8 km/h (4 Bft) W-SW 258 0 min 0 W/m 4,8 C -1,8 C 41,8 km/h (6 Bft)
04.03.2019 21:21 7,3 C 84 % 989,2 hPa 0,0 l/m 28,9 km/h (5 Bft) SW 223 0 min 0 W/m 4,8 C -2,9 C 45,1 km/h (6 Bft)
04.03.2019 21:24 7,3 C 84 % 989,2 hPa 0,0 l/m 21,1 km/h (4 Bft) W 277 0 min 0 W/m 4,8 C -0,6 C 45,1 km/h (6 Bft)
04.03.2019 21:27 7,3 C 84 % 989,3 hPa 0,0 l/m 21,7 km/h (4 Bft) SW 228 0 min 0 W/m 4,8 C -0,8 C 41,8 km/h (6 Bft)
04.03.2019 21:30 7,3 C 84 % 989,2 hPa 0,0 l/m 23,0 km/h (4 Bft) S-SW 213 0 min 0 W/m 4,8 C -1,2 C 45,1 km/h (6 Bft)
04.03.2019 21:33 7,2 C 84 % 989,3 hPa 0,0 l/m 25,6 km/h (4 Bft) S-SW 206 0 min 0 W/m 4,7 C -2,1 C 46,7 km/h (6 Bft)
04.03.2019 21:36 7,2 C 84 % 989,4 hPa 0,0 l/m 21,9 km/h (4 Bft) SW 218 0 min 0 W/m 4,7 C -1,0 C 33,8 km/h (5 Bft)
04.03.2019 21:39 7,2 C 84 % 989,4 hPa 0,0 l/m 19,7 km/h (3 Bft) W-NW 288 0 min 0 W/m 4,7 C -0,2 C 35,4 km/h (5 Bft)
04.03.2019 21:42 7,2 C 84 % 989,4 hPa 0,0 l/m 21,9 km/h (4 Bft) SW 227 0 min 0 W/m 4,7 C -1,0 C 38,6 km/h (6 Bft)
04.03.2019 21:45 7,1 C 85 % 989,4 hPa 0,0 l/m 24,7 km/h (4 Bft) W-SW 255 0 min 0 W/m 4,8 C -2,0 C 53,1 km/h (7 Bft)
04.03.2019 21:48 7,1 C 85 % 989,5 hPa 0,0 l/m 22,4 km/h (4 Bft) S-SW 205 0 min 0 W/m 4,8 C -1,3 C 38,6 km/h (6 Bft)
04.03.2019 21:51 7,1 C 85 % 989,4 hPa 0,0 l/m 26,6 km/h (4 Bft) SW 215 0 min 0 W/m 4,8 C -2,6 C 48,3 km/h (6 Bft)
04.03.2019 21:54 7,1 C 85 % 989,4 hPa 0,0 l/m 24,2 km/h (4 Bft) SW 236 0 min 0 W/m 4,8 C -1,9 C 46,7 km/h (6 Bft)
04.03.2019 21:57 7,1 C 85 % 989,4 hPa 0,0 l/m 21,9 km/h (4 Bft) SW 227 0 min 0 W/m 4,8 C -1,1 C 45,1 km/h (6 Bft)
04.03.2019 22:00 7,1 C 85 % 989,5 hPa 0,0 l/m 22,6 km/h (4 Bft) SW 227 0 min 0 W/m 4,8 C -1,4 C 38,6 km/h (6 Bft)
04.03.2019 22:03 7,0 C 85 % 989,6 hPa 0,0 l/m 25,7 km/h (4 Bft) S-SW 213 0 min 0 W/m 4,7 C -2,4 C 41,8 km/h (6 Bft)
04.03.2019 22:06 7,0 C 85 % 989,6 hPa 0,0 l/m 21,3 km/h (4 Bft) S 186 0 min 0 W/m 4,7 C -1,1 C 35,4 km/h (5 Bft)
04.03.2019 22:09 7,0 C 85 % 989,7 hPa 0,0 l/m 21,4 km/h (4 Bft) W-SW 245 0 min 0 W/m 4,7 C -1,1 C 38,6 km/h (6 Bft)
04.03.2019 22:12 7,1 C 85 % 989,8 hPa 0,0 l/m 20,0 km/h (4 Bft) SW 219 0 min 0 W/m 4,8 C -0,5 C 41,8 km/h (6 Bft)
04.03.2019 22:15 7,1 C 85 % 989,8 hPa 0,0 l/m 20,3 km/h (4 Bft) W 279 0 min 0 W/m 4,8 C -0,6 C 30,6 km/h (5 Bft)
04.03.2019 22:18 7,1 C 86 % 989,8 hPa 0,0 l/m 21,6 km/h (4 Bft) S-SW 209 0 min 0 W/m 4,9 C -1,0 C 35,4 km/h (5 Bft)
04.03.2019 22:21 7,1 C 86 % 989,9 hPa 0,0 l/m 21,3 km/h (4 Bft) W 260 0 min 0 W/m 4,9 C -0,9 C 35,4 km/h (5 Bft)
04.03.2019 22:24 7,1 C 85 % 989,9 hPa 0,0 l/m 19,7 km/h (3 Bft) W-SW 244 0 min 0 W/m 4,8 C -0,3 C 38,6 km/h (6 Bft)
04.03.2019 22:27 7,1 C 85 % 990,0 hPa 0,0 l/m 19,6 km/h (3 Bft) W 267 0 min 0 W/m 4,8 C -0,3 C 29,0 km/h (5 Bft)
04.03.2019 22:30 7,1 C 85 % 990,0 hPa 0,0 l/m 19,4 km/h (3 Bft) SW 232 0 min 0 W/m 4,8 C -0,2 C 30,6 km/h (5 Bft)
04.03.2019 22:33 7,1 C 85 % 990,0 hPa 0,0 l/m 24,6 km/h (4 Bft) SW 214 0 min 0 W/m 4,8 C -2,0 C 41,8 km/h (6 Bft)
04.03.2019 22:36 7,1 C 85 % 990,1 hPa 0,0 l/m 22,9 km/h (4 Bft) W 263 0 min 0 W/m 4,8 C -1,5 C 38,6 km/h (6 Bft)
04.03.2019 22:39 7,2 C 85 % 990,1 hPa 0,0 l/m 23,0 km/h (4 Bft) SW 215 0 min 0 W/m 4,9 C -1,4 C 43,5 km/h (6 Bft)
04.03.2019 22:42 7,2 C 85 % 990,2 hPa 0,0 l/m 21,7 km/h (4 Bft) SW 236 0 min 0 W/m 4,9 C -0,9 C 41,8 km/h (6 Bft)
04.03.2019 22:45 7,1 C 85 % 990,3 hPa 0,0 l/m 21,3 km/h (4 Bft) SW 217 0 min 0 W/m 4,8 C -0,9 C 38,6 km/h (6 Bft)
04.03.2019 22:48 7,1 C 85 % 990,3 hPa 0,0 l/m 23,6 km/h (4 Bft) SW 216 0 min 0 W/m 4,8 C -1,7 C 43,5 km/h (6 Bft)
04.03.2019 22:51 7,1 C 85 % 990,4 hPa 0,0 l/m 25,4 km/h (4 Bft) W-SW 255 0 min 0 W/m 4,8 C -2,2 C 40,2 km/h (6 Bft)
04.03.2019 22:54 7,1 C 84 % 990,4 hPa 0,0 l/m 21,5 km/h (4 Bft) SW 234 0 min 0 W/m 4,6 C -1,0 C 38,6 km/h (6 Bft)
04.03.2019 22:57 7,1 C 84 % 990,5 hPa 0,0 l/m 24,4 km/h (4 Bft) W-SW 254 0 min 0 W/m 4,6 C -1,9 C 40,2 km/h (6 Bft)
04.03.2019 23:00 7,1 C 84 % 990,4 hPa 0,0 l/m 26,1 km/h (4 Bft) SW 215 0 min 0 W/m 4,6 C -2,4 C 43,5 km/h (6 Bft)
04.03.2019 23:03 7,0 C 84 % 990,5 hPa 0,0 l/m 28,4 km/h (5 Bft) W-SW 238 0 min 0 W/m 4,5 C -3,2 C 45,1 km/h (6 Bft)
04.03.2019 23:06 7,0 C 85 % 990,6 hPa 0,0 l/m 25,0 km/h (4 Bft) W-SW 252 0 min 0 W/m 4,7 C -2,2 C 37,0 km/h (5 Bft)
04.03.2019 23:09 7,0 C 85 % 990,6 hPa 0,0 l/m 24,3 km/h (4 Bft) S-SW 201 0 min 0 W/m 4,7 C -2,0 C 40,2 km/h (6 Bft)
04.03.2019 23:12 6,9 C 85 % 990,6 hPa 0,0 l/m 23,7 km/h (4 Bft) SW 228 0 min 0 W/m 4,6 C -2,0 C 37,0 km/h (5 Bft)
04.03.2019 23:15 6,9 C 85 % 990,6 hPa 0,0 l/m 25,6 km/h (4 Bft) SW 227 0 min 0 W/m 4,6 C -2,5 C 46,7 km/h (6 Bft)
04.03.2019 23:18 6,9 C 85 % 990,6 hPa 0,0 l/m 23,7 km/h (4 Bft) W-SW 238 0 min 0 W/m 4,6 C -2,0 C 33,8 km/h (5 Bft)
04.03.2019 23:21 6,9 C 85 % 990,7 hPa 0,0 l/m 27,6 km/h (5 Bft) W-SW 241 0 min 0 W/m 4,6 C -3,1 C 37,0 km/h (5 Bft)
04.03.2019 23:24 6,8 C 85 % 990,8 hPa 0,0 l/m 25,0 km/h (4 Bft) SW 221 0 min 0 W/m 4,5 C -2,5 C 40,2 km/h (6 Bft)
04.03.2019 23:27 6,8 C 86 % 990,7 hPa 0,0 l/m 23,3 km/h (4 Bft) W-SW 240 0 min 0 W/m 4,6 C -2,0 C 33,8 km/h (5 Bft)
04.03.2019 23:30 6,8 C 86 % 990,7 hPa 0,0 l/m 25,4 km/h (4 Bft) W 259 0 min 0 W/m 4,6 C -2,6 C 43,5 km/h (6 Bft)
04.03.2019 23:33 6,9 C 86 % 990,8 hPa 0,0 l/m 25,6 km/h (4 Bft) SW 233 0 min 0 W/m 4,7 C -2,5 C 46,7 km/h (6 Bft)
04.03.2019 23:36 6,9 C 86 % 990,8 hPa 0,0 l/m 24,9 km/h (4 Bft) S-SW 205 0 min 0 W/m 4,7 C -2,3 C 38,6 km/h (6 Bft)
04.03.2019 23:39 6,9 C 86 % 990,8 hPa 0,0 l/m 26,9 km/h (4 Bft) W-SW 246 0 min 0 W/m 4,7 C -2,9 C 40,2 km/h (6 Bft)
04.03.2019 23:42 6,9 C 86 % 990,9 hPa 0,0 l/m 26,9 km/h (4 Bft) SW 217 0 min 0 W/m 4,7 C -2,9 C 35,4 km/h (5 Bft)
04.03.2019 23:45 6,9 C 86 % 990,9 hPa 0,0 l/m 26,2 km/h (4 Bft) SW 219 0 min 0 W/m 4,7 C -2,7 C 40,2 km/h (6 Bft)
04.03.2019 23:48 6,9 C 87 % 990,9 hPa 0,0 l/m 26,4 km/h (4 Bft) SW 233 0 min 0 W/m 4,9 C -2,8 C 41,8 km/h (6 Bft)
04.03.2019 23:51 6,9 C 87 % 990,9 hPa 0,0 l/m 27,0 km/h (5 Bft) SW 230 0 min 0 W/m 4,9 C -2,9 C 45,1 km/h (6 Bft)
04.03.2019 23:54 6,9 C 87 % 990,9 hPa 0,0 l/m 26,8 km/h (4 Bft) SW 231 0 min 0 W/m 4,9 C -2,9 C 38,6 km/h (6 Bft)
04.03.2019 23:57 6,9 C 87 % 991,0 hPa 0,0 l/m 25,5 km/h (4 Bft) W-SW 240 0 min 0 W/m 4,9 C -2,5 C 53,1 km/h (7 Bft)
_ Min-Zeit 11:51 09:00 08:51 - 11:39 - - - - 23:24 15:18 05:30
Minimum _ 6,2 C 78 % 979,3 hPa - 11,8 km/h (2 Bft) - - - - 4,5 C -5,7 C 20,9 km/h (4 Bft)
_ Max-Zeit 08:24 00:00 00:00 09:00 14:45 - - 10:45 10:51 00:24 05:48 16:18
Maximum _ 11,3 C 96 % 991,1 hPa 0,8 l/m 37,4 km/h
S-SW (5 Bft)
- - 3 min 487 W/m 9,6 C 7,0 C 66,0 km/h
SW (8 Bft)
Durchschnitt _ 8,4 C 88 % 984,9 hPa #5,6 l/m 23,6 km/h (4 Bft) SW - #12 min. 70 W/m 6,6 C 0,2 C 39,1 km/h (6 Bft)
2019 Cux-Wetter.de -Die Nutzung der Wetterdaten nur mit ausdrcklicher Genehmigung